| time (UTC) | temp F | wind direction | speed knots | gust knots | rain 1hr in | rain 24hr in | rain mn in | humidity % | barometer mb |
| 20260508231827 | 48 | 112 | 0.0 | 0.0 | 0.00 | 0.00 | 0.00 | 80 | 1065.7 |
| 20260508231723 | 48 | 112 | 0.0 | 0.0 | 0.00 | 0.00 | 0.00 | 80 | 1065.7 |
| 20260508231618 | 48 | 112 | 0.0 | 0.0 | 0.00 | 0.00 | 0.00 | 80 | 1065.7 |
| 20260508231504 | 48 | 112 | 1.7 | 0.0 | 0.00 | 0.00 | 0.00 | 79 | 1065.7 |
| 20260508231350 | 48 | 67 | 3.5 | 0.0 | 0.00 | 0.00 | 0.00 | 79 | 1065.6 |
| 20260508231237 | 48 | 90 | 3.5 | 0.0 | 0.00 | 0.00 | 0.00 | 79 | 1065.6 |
| 20260508231115 | 48 | 112 | 2.6 | 0.0 | 0.00 | 0.00 | 0.00 | 79 | 1065.6 |
| 20260508230955 | 48 | 112 | 1.7 | 0.0 | 0.00 | 0.00 | 0.00 | 79 | 1065.6 |
| 20260508230849 | 48 | 135 | 3.5 | 0.0 | 0.00 | 0.00 | 0.00 | 79 | 1065.6 |
| 20260508230729 | 48 | 112 | 1.7 | 0.0 | 0.00 | 0.00 | 0.00 | 79 | 1065.6 |
| 20260508230617 | 48 | 135 | 4.3 | 0.0 | 0.00 | 0.00 | 0.00 | 79 | 1065.6 |
| 20260508230502 | 48 | 135 | 2.6 | 0.0 | 0.00 | 0.00 | 0.00 | 79 | 1065.6 |
| 20260508230349 | 48 | 135 | 3.5 | 0.0 | 0.00 | 0.00 | 0.00 | 79 | 1065.6 |
| 20260508230230 | 48 | 135 | 3.5 | 0.0 | 0.00 | 0.00 | 0.00 | 79 | 1065.6 |
| 20260508230126 | 48 | 135 | 0.9 | 0.0 | 0.00 | 0.00 | 0.00 | 79 | 1065.6 |
| 20260508230017 | 48 | 135 | 2.6 | 0.0 | 0.00 | 0.00 | 0.00 | 79 | 1065.5 |
| 20260508225904 | 48 | 135 | 3.5 | 0.0 | 0.00 | 0.00 | 0.00 | 79 | 1065.5 |
| 20260508225754 | 48 | 135 | 4.3 | 0.0 | 0.00 | 0.00 | 0.00 | 80 | 1065.6 |
| 20260508225639 | 48 | 135 | 5.2 | 0.0 | 0.00 | 0.00 | 0.00 | 80 | 1065.5 |
| 20260508225534 | 48 | 135 | 1.7 | 0.0 | 0.00 | 0.00 | 0.00 | 80 | 1065.5 |
| 20260508225431 | 48 | 135 | 1.7 | 0.0 | 0.00 | 0.00 | 0.00 | 80 | 1065.6 |
| 20260508225325 | 48 | 135 | 1.7 | 0.0 | 0.00 | 0.00 | 0.00 | 80 | 1065.5 |
| 20260508225218 | 48 | 135 | 2.6 | 0.0 | 0.00 | 0.00 | 0.00 | 81 | 1065.6 |
| 20260508225057 | 48 | 112 | 1.7 | 0.0 | 0.00 | 0.00 | 0.00 | 81 | 1065.5 |
| 20260508224935 | 48 | 135 | 3.5 | 0.0 | 0.00 | 0.00 | 0.00 | 81 | 1065.5 |
| 20260508224814 | 48 | 112 | 4.3 | 0.0 | 0.00 | 0.00 | 0.00 | 81 | 1065.5 |
| 20260508224702 | 48 | 112 | 2.6 | 0.0 | 0.00 | 0.00 | 0.00 | 81 | 1065.5 |
| 20260508224557 | 48 | 135 | 4.3 | 0.0 | 0.00 | 0.00 | 0.00 | 81 | 1065.5 |
| 20260508224443 | 48 | 135 | 3.5 | 0.0 | 0.00 | 0.00 | 0.00 | 81 | 1065.5 |
| 20260508224322 | 48 | 135 | 4.3 | 0.0 | 0.00 | 0.00 | 0.00 | 81 | 1065.6 |
| 20260508224217 | 48 | 135 | 0.0 | 0.0 | 0.00 | 0.00 | 0.00 | 81 | 1065.5 |
| 20260508224058 | 48 | 135 | 0.0 | 0.0 | 0.00 | 0.00 | 0.00 | 81 | 1065.5 |
| 20260508223951 | 48 | 135 | 2.6 | 0.0 | 0.00 | 0.00 | 0.00 | 81 | 1065.6 |
| 20260508223837 | 48 | 135 | 1.7 | 0.0 | 0.00 | 0.00 | 0.00 | 81 | 1065.6 |
| 20260508223726 | 48 | 135 | 3.5 | 0.0 | 0.00 | 0.00 | 0.00 | 81 | 1065.6 |
| 20260508223619 | 48 | 157 | 2.6 | 0.0 | 0.00 | 0.00 | 0.00 | 80 | 1065.6 |
| 20260508223458 | 48 | 135 | 0.0 | 0.0 | 0.00 | 0.00 | 0.00 | 80 | 1065.6 |
| 20260508223329 | 48 | 135 | 0.0 | 0.0 | 0.00 | 0.00 | 0.00 | 80 | 1065.6 |
| 20260508223216 | 48 | 112 | 0.0 | 0.0 | 0.00 | 0.00 | 0.00 | 80 | 1065.6 |
| 20260508223054 | 48 | 112 | 0.0 | 0.0 | 0.00 | 0.00 | 0.00 | 80 | 1065.6 |
| 20260508222925 | 48 | 112 | 0.0 | 0.0 | 0.00 | 0.00 | 0.00 | 80 | 1065.6 |
| 20260508222812 | 48 | 112 | 0.0 | 0.0 | 0.00 | 0.00 | 0.00 | 80 | 1065.6 |
| 20260508222650 | 48 | 112 | 0.0 | 0.0 | 0.00 | 0.00 | 0.00 | 80 | 1065.6 |
| 20260508222529 | 48 | 112 | 0.0 | 0.0 | 0.00 | 0.00 | 0.00 | 80 | 1065.6 |
| 20260508222408 | 48 | 112 | 0.0 | 0.0 | 0.00 | 0.00 | 0.00 | 80 | 1065.6 |
| 20260508222258 | 48 | 112 | 0.0 | 0.0 | 0.00 | 0.00 | 0.00 | 79 | 1065.6 |
| 20260508222149 | 48 | 112 | 0.0 | 0.0 | 0.00 | 0.00 | 0.00 | 79 | 1065.6 |
| 20260508222031 | 48 | 90 | 0.0 | 0.0 | 0.00 | 0.00 | 0.00 | 79 | 1065.6 |
| 20260508221924 | 48 | 90 | 0.0 | 0.0 | 0.00 | 0.00 | 0.00 | 79 | 1065.6 |
| 20260508221810 | 48 | 90 | 0.0 | 0.0 | 0.00 | 0.00 | 0.00 | 79 | 1065.7 |
| 20260508221649 | 48 | 90 | 0.0 | 0.0 | 0.00 | 0.00 | 0.00 | 79 | 1065.7 |
| 20260508221521 | 48 | 90 | 0.0 | 0.0 | 0.00 | 0.00 | 0.00 | 79 | 1065.7 |
| 20260508221415 | 48 | 90 | 0.0 | 0.0 | 0.00 | 0.00 | 0.00 | 79 | 1065.6 |
| 20260508221302 | 48 | 90 | 1.7 | 0.0 | 0.00 | 0.00 | 0.00 | 79 | 1065.6 |
| 20260508221140 | 48 | 90 | 3.5 | 0.0 | 0.00 | 0.00 | 0.00 | 79 | 1065.6 |
| 20260508221019 | 48 | 90 | 2.6 | 0.0 | 0.00 | 0.00 | 0.00 | 79 | 1065.6 |
| 20260508220850 | 49 | 90 | 0.0 | 0.0 | 0.00 | 0.00 | 0.00 | 78 | 1065.6 |
| 20260508220738 | 49 | 112 | 0.0 | 0.0 | 0.00 | 0.00 | 0.00 | 78 | 1065.5 |
| 20260508220633 | 49 | 90 | 0.0 | 0.0 | 0.00 | 0.00 | 0.00 | 78 | 1065.6 |
| 20260508220527 | 49 | 90 | 0.0 | 0.0 | 0.00 | 0.00 | 0.00 | 78 | 1065.6 |
| 20260508220405 | 49 | 90 | 0.0 | 0.0 | 0.00 | 0.00 | 0.00 | 77 | 1065.6 |
| 20260508220251 | 49 | 90 | 0.0 | 0.0 | 0.00 | 0.00 | 0.00 | 77 | 1065.6 |
| 20260508220130 | 49 | 90 | 0.0 | 0.0 | 0.00 | 0.00 | 0.00 | 77 | 1065.6 |
| 20260508220022 | 49 | 112 | 1.7 | 0.0 | 0.00 | 0.00 | 0.00 | 77 | 1065.6 |
| 20260508215900 | 49 | 90 | 3.5 | 0.0 | 0.00 | 0.00 | 0.00 | 77 | 1065.6 |
| 20260508215746 | 49 | 90 | 3.5 | 0.0 | 0.00 | 0.00 | 0.00 | 77 | 1065.6 |
| 20260508215641 | 49 | 67 | 0.0 | 0.0 | 0.00 | 0.00 | 0.00 | 77 | 1065.6 |
| 20260508215535 | 49 | 90 | 0.0 | 0.0 | 0.00 | 0.00 | 0.00 | 77 | 1065.6 |
| 20260508215419 | 49 | 90 | 1.7 | 0.0 | 0.00 | 0.00 | 0.00 | 77 | 1065.6 |
| 20260508215259 | 49 | 67 | 2.6 | 0.0 | 0.00 | 0.00 | 0.00 | 77 | 1065.6 |
| 20260508215150 | 49 | 90 | 2.6 | 0.0 | 0.00 | 0.00 | 0.00 | 77 | 1065.6 |
| 20260508215029 | 49 | 90 | 3.5 | 0.0 | 0.00 | 0.00 | 0.00 | 76 | 1065.6 |
| 20260508214917 | 49 | 90 | 3.5 | 0.0 | 0.00 | 0.00 | 0.00 | 76 | 1065.6 |
| 20260508214808 | 49 | 112 | 3.5 | 0.0 | 0.00 | 0.00 | 0.00 | 76 | 1065.6 |
| 20260508214656 | 49 | 90 | 2.6 | 0.0 | 0.00 | 0.00 | 0.00 | 76 | 1065.5 |
| 20260508214548 | 49 | 112 | 4.3 | 0.0 | 0.00 | 0.00 | 0.00 | 76 | 1065.6 |
| 20260508214435 | 49 | 90 | 2.6 | 0.0 | 0.00 | 0.00 | 0.00 | 76 | 1065.6 |
| 20260508214329 | 49 | 112 | 2.6 | 0.0 | 0.00 | 0.00 | 0.00 | 76 | 1065.5 |
| 20260508214210 | 49 | 90 | 0.0 | 0.0 | 0.00 | 0.00 | 0.00 | 76 | 1065.6 |
| 20260508214055 | 49 | 90 | 0.0 | 0.0 | 0.00 | 0.00 | 0.00 | 76 | 1065.6 |
| 20260508213942 | 49 | 90 | 5.2 | 0.0 | 0.00 | 0.00 | 0.00 | 76 | 1065.6 |
| 20260508213837 | 49 | 90 | 4.3 | 0.0 | 0.00 | 0.00 | 0.00 | 76 | 1065.6 |
| 20260508213724 | 49 | 90 | 3.5 | 0.0 | 0.00 | 0.00 | 0.00 | 76 | 1065.6 |
| 20260508213610 | 49 | 112 | 5.2 | 0.0 | 0.00 | 0.00 | 0.00 | 76 | 1065.6 |
| 20260508213448 | 49 | 112 | 3.5 | 0.0 | 0.00 | 0.00 | 0.00 | 76 | 1065.6 |
| 20260508213334 | 49 | 112 | 4.3 | 0.0 | 0.00 | 0.00 | 0.00 | 76 | 1065.6 |
| 20260508213212 | 49 | 90 | 5.2 | 0.0 | 0.00 | 0.00 | 0.00 | 76 | 1065.7 |
| 20260508213058 | 49 | 90 | 3.5 | 0.0 | 0.00 | 0.00 | 0.00 | 76 | 1065.7 |
| 20260508212952 | 49 | 90 | 4.3 | 0.0 | 0.00 | 0.00 | 0.00 | 76 | 1065.7 |
| 20260508212846 | 49 | 90 | 2.6 | 0.0 | 0.00 | 0.00 | 0.00 | 77 | 1065.6 |
| 20260508212734 | 49 | 90 | 1.7 | 0.0 | 0.00 | 0.00 | 0.00 | 77 | 1065.6 |
| 20260508212625 | 49 | 112 | 1.7 | 0.0 | 0.00 | 0.00 | 0.00 | 77 | 1065.7 |
| 20260508212503 | 49 | 90 | 3.5 | 0.0 | 0.00 | 0.00 | 0.00 | 77 | 1065.7 |
| 20260508212349 | 49 | 90 | 3.5 | 0.0 | 0.00 | 0.00 | 0.00 | 77 | 1065.7 |
| 20260508212243 | 49 | 90 | 3.5 | 0.0 | 0.00 | 0.00 | 0.00 | 77 | 1065.7 |
| 20260508212136 | 49 | 90 | 4.3 | 0.0 | 0.00 | 0.00 | 0.00 | 77 | 1065.8 |
| 20260508212006 | 49 | 90 | 4.3 | 0.0 | 0.00 | 0.00 | 0.00 | 77 | 1065.7 |
| 20260508211852 | 49 | 90 | 3.5 | 0.0 | 0.00 | 0.00 | 0.00 | 77 | 1065.7 |
| 20260508211746 | 49 | 90 | 3.5 | 0.0 | 0.00 | 0.00 | 0.00 | 77 | 1065.8 |
| 20260508211639 | 49 | 67 | 2.6 | 0.0 | 0.00 | 0.00 | 0.00 | 77 | 1065.8 |
| 20260508211511 | 49 | 67 | 0.0 | 0.0 | 0.00 | 0.00 | 0.00 | 77 | 1065.8 |
| 20260508211405 | 49 | 90 | 3.5 | 0.0 | 0.00 | 0.00 | 0.00 | 77 | 1065.8 |
| 20260508211258 | 49 | 90 | 4.3 | 0.0 | 0.00 | 0.00 | 0.00 | 77 | 1065.8 |
| 20260508211151 | 49 | 90 | 4.3 | 0.0 | 0.00 | 0.00 | 0.00 | 77 | 1065.8 |
| 20260508211037 | 49 | 90 | 4.3 | 0.0 | 0.00 | 0.00 | 0.00 | 77 | 1065.8 |
| 20260508210922 | 48 | 90 | 2.6 | 0.0 | 0.00 | 0.00 | 0.00 | 77 | 1065.8 |
| 20260508210803 | 48 | 90 | 4.3 | 0.0 | 0.00 | 0.00 | 0.00 | 77 | 1065.8 |
| 20260508210654 | 48 | 90 | 3.5 | 0.0 | 0.00 | 0.00 | 0.00 | 77 | 1065.8 |
| 20260508210540 | 48 | 90 | 2.6 | 0.0 | 0.00 | 0.00 | 0.00 | 77 | 1065.8 |
| 20260508210435 | 48 | 112 | 1.7 | 0.0 | 0.00 | 0.00 | 0.00 | 77 | 1065.8 |
| 20260508210328 | 48 | 112 | 1.7 | 0.0 | 0.00 | 0.00 | 0.00 | 77 | 1065.8 |
| 20260508210222 | 48 | 90 | 0.0 | 0.0 | 0.00 | 0.00 | 0.00 | 77 | 1065.7 |
| 20260508210116 | 48 | 90 | 0.0 | 0.0 | 0.00 | 0.00 | 0.00 | 77 | 1065.7 |
| 20260508210010 | 48 | 90 | 3.5 | 0.0 | 0.00 | 0.00 | 0.00 | 77 | 1065.7 |
| 20260508205904 | 49 | 67 | 1.7 | 0.0 | 0.00 | 0.00 | 0.00 | 76 | 1065.7 |
| 20260508205741 | 49 | 90 | 0.0 | 0.0 | 0.00 | 0.00 | 0.00 | 76 | 1065.7 |
| 20260508205620 | 49 | 90 | 0.0 | 0.0 | 0.00 | 0.00 | 0.00 | 76 | 1065.7 |
| 20260508205513 | 49 | 90 | 1.7 | 0.0 | 0.00 | 0.00 | 0.00 | 76 | 1065.7 |
| 20260508205352 | 49 | 90 | 0.0 | 0.0 | 0.00 | 0.00 | 0.00 | 76 | 1065.7 |
| 20260508205236 | 49 | 90 | 0.0 | 0.0 | 0.00 | 0.00 | 0.00 | 76 | 1065.8 |
| 20260508205121 | 49 | 90 | 0.0 | 0.0 | 0.00 | 0.00 | 0.00 | 76 | 1065.7 |
| 20260508205000 | 49 | 90 | 0.0 | 0.0 | 0.00 | 0.00 | 0.00 | 76 | 1065.7 |
| 20260508204845 | 49 | 90 | 0.0 | 0.0 | 0.00 | 0.00 | 0.00 | 76 | 1065.7 |
| 20260508204732 | 49 | 112 | 1.7 | 0.0 | 0.00 | 0.00 | 0.00 | 75 | 1065.7 |
| 20260508204626 | 49 | 112 | 0.0 | 0.0 | 0.00 | 0.00 | 0.00 | 75 | 1065.6 |
| 20260508204459 | 49 | 67 | 0.0 | 0.0 | 0.00 | 0.00 | 0.00 | 76 | 1065.7 |
| 20260508204350 | 49 | 67 | 0.0 | 0.0 | 0.00 | 0.00 | 0.00 | 75 | 1065.7 |
| 20260508204229 | 49 | 67 | 0.0 | 0.0 | 0.00 | 0.00 | 0.00 | 76 | 1065.8 |
| 20260508204114 | 49 | 67 | 0.0 | 0.0 | 0.00 | 0.00 | 0.00 | 75 | 1065.8 |
| 20260508204000 | 49 | 67 | 0.0 | 0.0 | 0.00 | 0.00 | 0.00 | 75 | 1065.8 |
| 20260508203831 | 49 | 45 | 0.0 | 0.0 | 0.00 | 0.00 | 0.00 | 75 | 1065.8 |
| 20260508203718 | 50 | 90 | 0.0 | 0.0 | 0.00 | 0.00 | 0.00 | 75 | 1065.8 |
| 20260508203605 | 50 | 45 | 0.0 | 0.0 | 0.00 | 0.00 | 0.00 | 75 | 1065.8 |
| 20260508203500 | 50 | 45 | 0.0 | 0.0 | 0.00 | 0.00 | 0.00 | 75 | 1065.8 |
| 20260508203340 | 50 | 45 | 0.0 | 0.0 | 0.00 | 0.00 | 0.00 | 75 | 1065.8 |
| 20260508203235 | 50 | 45 | 0.0 | 0.0 | 0.00 | 0.00 | 0.00 | 75 | 1065.8 |
| 20260508203121 | 50 | 67 | 0.0 | 0.0 | 0.00 | 0.00 | 0.00 | 75 | 1065.7 |
| 20260508203008 | 50 | 67 | 0.0 | 0.0 | 0.00 | 0.00 | 0.00 | 75 | 1065.7 |
| 20260508202901 | 50 | 67 | 0.0 | 0.0 | 0.00 | 0.00 | 0.00 | 75 | 1065.7 |
| 20260508202744 | 50 | 67 | 0.0 | 0.0 | 0.00 | 0.00 | 0.00 | 75 | 1065.7 |
| 20260508202628 | 50 | 67 | 0.0 | 0.0 | 0.00 | 0.00 | 0.00 | 76 | 1065.7 |
| 20260508202515 | 50 | 90 | 2.6 | 0.0 | 0.00 | 0.00 | 0.00 | 76 | 1065.7 |
| 20260508202409 | 50 | 90 | 3.5 | 0.0 | 0.00 | 0.00 | 0.00 | 76 | 1065.7 |
| 20260508202241 | 50 | 45 | 0.0 | 0.0 | 0.00 | 0.00 | 0.00 | 76 | 1065.7 |
| 20260508202127 | 50 | 90 | 0.0 | 0.0 | 0.00 | 0.00 | 0.00 | 76 | 1065.7 |
| 20260508202006 | 50 | 112 | 3.5 | 0.0 | 0.00 | 0.00 | 0.00 | 76 | 1065.6 |
| 20260508201854 | 50 | 90 | 2.6 | 0.0 | 0.00 | 0.00 | 0.00 | 76 | 1065.6 |
| 20260508201748 | 50 | 90 | 0.0 | 0.0 | 0.00 | 0.00 | 0.00 | 76 | 1065.6 |
| 20260508201635 | 50 | 90 | 3.5 | 0.0 | 0.00 | 0.00 | 0.00 | 76 | 1065.6 |
| 20260508201530 | 50 | 90 | 0.0 | 0.0 | 0.00 | 0.00 | 0.00 | 76 | 1065.6 |
| 20260508201424 | 50 | 90 | 0.0 | 0.0 | 0.00 | 0.00 | 0.00 | 77 | 1065.6 |
| 20260508201318 | 50 | 67 | 0.9 | 0.0 | 0.00 | 0.00 | 0.00 | 77 | 1065.6 |
| 20260508201213 | 50 | 67 | 0.0 | 0.0 | 0.00 | 0.00 | 0.00 | 77 | 1065.5 |
| 20260508201107 | 50 | 67 | 3.5 | 0.0 | 0.00 | 0.00 | 0.00 | 77 | 1065.6 |
| 20260508201001 | 50 | 67 | 0.0 | 0.0 | 0.00 | 0.00 | 0.00 | 78 | 1065.6 |
| 20260508200854 | 50 | 90 | 2.6 | 0.0 | 0.00 | 0.00 | 0.00 | 78 | 1065.5 |
| 20260508200731 | 50 | 112 | 6.1 | 0.0 | 0.00 | 0.00 | 0.00 | 78 | 1065.5 |
| 20260508200611 | 50 | 67 | 4.3 | 0.0 | 0.00 | 0.00 | 0.00 | 78 | 1065.5 |
| 20260508200450 | 50 | 90 | 4.3 | 0.0 | 0.00 | 0.00 | 0.00 | 78 | 1065.5 |
| 20260508200345 | 50 | 90 | 1.7 | 0.0 | 0.00 | 0.00 | 0.00 | 78 | 1065.5 |
| 20260508200230 | 50 | 90 | 7.0 | 0.0 | 0.00 | 0.00 | 0.00 | 78 | 1065.5 |
| 20260508200121 | 50 | 67 | 5.2 | 0.0 | 0.00 | 0.00 | 0.00 | 78 | 1065.5 |
| 20260508200013 | 50 | 67 | 2.6 | 0.0 | 0.00 | 0.00 | 0.00 | 78 | 1065.5 |
| 20260508195900 | 50 | 67 | 0.0 | 0.0 | 0.00 | 0.00 | 0.00 | 78 | 1065.5 |
| 20260508195749 | 50 | 67 | 1.7 | 0.0 | 0.00 | 0.00 | 0.00 | 78 | 1065.5 |
| 20260508195642 | 50 | 67 | 3.5 | 0.0 | 0.00 | 0.00 | 0.00 | 78 | 1065.5 |
| 20260508195529 | 50 | 45 | 5.2 | 0.0 | 0.00 | 0.00 | 0.00 | 78 | 1065.5 |
| 20260508195416 | 50 | 45 | 3.5 | 0.0 | 0.00 | 0.00 | 0.00 | 78 | 1065.5 |
| 20260508195311 | 50 | 90 | 6.1 | 0.0 | 0.00 | 0.00 | 0.00 | 79 | 1065.5 |
| 20260508195158 | 50 | 67 | 0.0 | 0.0 | 0.00 | 0.00 | 0.00 | 79 | 1065.5 |
| 20260508195045 | 50 | 67 | 0.0 | 0.0 | 0.00 | 0.00 | 0.00 | 79 | 1065.5 |
| 20260508194934 | 50 | 90 | 0.0 | 0.0 | 0.00 | 0.00 | 0.00 | 79 | 1065.5 |
| 20260508194829 | 50 | 90 | 4.3 | 0.0 | 0.00 | 0.00 | 0.00 | 79 | 1065.5 |
| 20260508194721 | 51 | 90 | 0.0 | 0.0 | 0.00 | 0.00 | 0.00 | 79 | 1065.4 |
| 20260508194608 | 51 | 67 | 3.5 | 0.0 | 0.00 | 0.00 | 0.00 | 79 | 1065.4 |
| 20260508194442 | 51 | 67 | 2.6 | 0.0 | 0.00 | 0.00 | 0.00 | 79 | 1065.5 |
| 20260508194334 | 51 | 67 | 0.0 | 0.0 | 0.00 | 0.00 | 0.00 | 79 | 1065.4 |
| 20260508194222 | 51 | 90 | 5.2 | 0.0 | 0.00 | 0.00 | 0.00 | 79 | 1065.5 |
| 20260508194115 | 51 | 67 | 5.2 | 0.0 | 0.00 | 0.00 | 0.00 | 79 | 1065.4 |
| 20260508193955 | 51 | 90 | 6.1 | 0.0 | 0.00 | 0.00 | 0.00 | 79 | 1065.4 |
| 20260508193852 | 51 | 45 | 4.3 | 0.0 | 0.00 | 0.00 | 0.00 | 78 | 1065.4 |
| 20260508193745 | 51 | 90 | 1.7 | 0.0 | 0.00 | 0.00 | 0.00 | 78 | 1065.4 |
| 20260508193632 | 51 | 67 | 1.7 | 0.0 | 0.00 | 0.00 | 0.00 | 78 | 1065.3 |
| 20260508193519 | 51 | 112 | 6.1 | 0.0 | 0.00 | 0.00 | 0.00 | 78 | 1065.4 |
| 20260508193406 | 51 | 67 | 5.2 | 0.0 | 0.00 | 0.00 | 0.00 | 78 | 1065.4 |
| 20260508193252 | 51 | 67 | 1.7 | 0.0 | 0.00 | 0.00 | 0.00 | 77 | 1065.3 |
| 20260508193136 | 51 | 67 | 0.0 | 0.0 | 0.00 | 0.00 | 0.00 | 77 | 1065.2 |
| 20260508193021 | 51 | 90 | 0.0 | 0.0 | 0.00 | 0.00 | 0.00 | 77 | 1065.3 |
| 20260508192851 | 51 | 90 | 5.2 | 0.0 | 0.00 | 0.00 | 0.00 | 77 | 1065.2 |
| 20260508192737 | 51 | 90 | 0.0 | 0.0 | 0.00 | 0.00 | 0.00 | 76 | 1065.3 |
| 20260508192631 | 51 | 90 | 1.7 | 0.0 | 0.00 | 0.00 | 0.00 | 76 | 1065.3 |
| 20260508192523 | 51 | 90 | 5.2 | 0.0 | 0.00 | 0.00 | 0.00 | 76 | 1065.3 |
| 20260508192403 | 51 | 90 | 0.0 | 0.0 | 0.00 | 0.00 | 0.00 | 75 | 1065.2 |
| 20260508192242 | 52 | 90 | 4.3 | 0.0 | 0.00 | 0.00 | 0.00 | 75 | 1065.2 |
| 20260508192136 | 52 | 90 | 4.3 | 0.0 | 0.00 | 0.00 | 0.00 | 75 | 1065.2 |
| 20260508192016 | 52 | 45 | 6.1 | 0.0 | 0.00 | 0.00 | 0.00 | 74 | 1065.2 |
| 20260508191910 | 52 | 67 | 0.0 | 0.0 | 0.00 | 0.00 | 0.00 | 74 | 1065.2 |
| 20260508191757 | 52 | 67 | 5.2 | 0.0 | 0.00 | 0.00 | 0.00 | 73 | 1065.2 |
| 20260508191644 | 52 | 67 | 5.2 | 0.0 | 0.00 | 0.00 | 0.00 | 73 | 1065.2 |
| 20260508191531 | 52 | 112 | 0.0 | 0.0 | 0.00 | 0.00 | 0.00 | 73 | 1065.2 |
| 20260508191410 | 52 | 90 | 4.3 | 0.0 | 0.00 | 0.00 | 0.00 | 72 | 1065.2 |
| 20260508191248 | 52 | 90 | 0.0 | 0.0 | 0.00 | 0.00 | 0.00 | 72 | 1065.1 |
| 20260508191128 | 52 | 112 | 7.0 | 0.0 | 0.00 | 0.00 | 0.00 | 71 | 1065.2 |
| 20260508191024 | 53 | 67 | 4.3 | 0.0 | 0.00 | 0.00 | 0.00 | 71 | 1065.2 |
| 20260508190917 | 53 | 45 | 7.8 | 0.0 | 0.00 | 0.00 | 0.00 | 71 | 1065.2 |
| 20260508190810 | 53 | 67 | 0.0 | 0.0 | 0.00 | 0.00 | 0.00 | 71 | 1065.2 |
| 20260508190658 | 53 | 67 | 5.2 | 0.0 | 0.00 | 0.00 | 0.00 | 71 | 1065.1 |
| 20260508190544 | 53 | 90 | 7.8 | 0.0 | 0.00 | 0.00 | 0.00 | 71 | 1065.2 |
| 20260508190422 | 53 | 112 | 4.3 | 0.0 | 0.00 | 0.00 | 0.00 | 70 | 1065.1 |
| 20260508190301 | 53 | 67 | 0.0 | 0.0 | 0.00 | 0.00 | 0.00 | 70 | 1065.1 |
| 20260508190148 | 54 | 45 | 0.0 | 0.0 | 0.00 | 0.00 | 0.00 | 69 | 1065.2 |
| 20260508190034 | 54 | 67 | 5.2 | 0.0 | 0.00 | 0.00 | 0.00 | 69 | 1065.1 |
| 20260508185922 | 54 | 67 | 0.0 | 0.0 | 0.00 | 0.00 | 0.00 | 69 | 1065.1 |
| 20260508185817 | 54 | 67 | 0.0 | 0.0 | 0.00 | 0.00 | 0.00 | 68 | 1065.1 |
| 20260508185656 | 54 | 90 | 1.7 | 0.0 | 0.00 | 0.00 | 0.00 | 68 | 1065.0 |
| 20260508185543 | 55 | 67 | 1.7 | 0.0 | 0.00 | 0.00 | 0.00 | 68 | 1065.1 |
| 20260508185430 | 55 | 67 | 5.2 | 0.0 | 0.00 | 0.00 | 0.00 | 68 | 1065.1 |
| 20260508185323 | 55 | 67 | 6.1 | 0.0 | 0.00 | 0.00 | 0.00 | 68 | 1065.0 |
| 20260508185212 | 55 | 90 | 0.0 | 0.0 | 0.00 | 0.00 | 0.00 | 68 | 1065.0 |
| 20260508185050 | 55 | 67 | 4.3 | 0.0 | 0.00 | 0.00 | 0.00 | 67 | 1065.0 |
| 20260508184938 | 55 | 45 | 0.0 | 0.0 | 0.00 | 0.00 | 0.00 | 67 | 1065.0 |
| 20260508184832 | 55 | 90 | 0.0 | 0.0 | 0.00 | 0.00 | 0.00 | 67 | 1065.0 |
| 20260508184712 | 55 | 90 | 4.3 | 0.0 | 0.00 | 0.00 | 0.00 | 67 | 1065.0 |
| 20260508184600 | 55 | 112 | 4.3 | 0.0 | 0.00 | 0.00 | 0.00 | 67 | 1065.1 |
| 20260508184452 | 55 | 22 | 6.1 | 0.0 | 0.00 | 0.00 | 0.00 | 67 | 1065.0 |
| 20260508184338 | 56 | 112 | 5.2 | 0.0 | 0.00 | 0.00 | 0.00 | 66 | 1065.0 |
| 20260508184212 | 56 | 45 | 0.0 | 0.0 | 0.00 | 0.00 | 0.00 | 66 | 1065.1 |
| 20260508184108 | 56 | 45 | 7.0 | 0.0 | 0.00 | 0.00 | 0.00 | 66 | 1065.1 |
| 20260508184000 | 56 | 90 | 6.1 | 0.0 | 0.00 | 0.00 | 0.00 | 66 | 1065.0 |
| 20260508183846 | 56 | 67 | 4.3 | 0.0 | 0.00 | 0.00 | 0.00 | 65 | 1065.0 |
| 20260508183717 | 57 | 45 | 7.8 | 0.0 | 0.00 | 0.00 | 0.00 | 65 | 1064.9 |
| 20260508183607 | 57 | 90 | 2.6 | 0.0 | 0.00 | 0.00 | 0.00 | 65 | 1064.9 |
| 20260508183501 | 57 | 90 | 4.3 | 0.0 | 0.00 | 0.00 | 0.00 | 65 | 1064.9 |
| 20260508183355 | 57 | 112 | 8.7 | 0.0 | 0.00 | 0.00 | 0.00 | 65 | 1065.0 |
| 20260508183240 | 57 | 45 | 0.0 | 0.0 | 0.00 | 0.00 | 0.00 | 65 | 1065.0 |
| 20260508183120 | 57 | 67 | 0.0 | 0.0 | 0.00 | 0.00 | 0.00 | 65 | 1064.9 |
| 20260508182959 | 57 | 90 | 4.3 | 0.0 | 0.00 | 0.00 | 0.00 | 65 | 1064.9 |
| 20260508182840 | 57 | 67 | 0.0 | 0.0 | 0.00 | 0.00 | 0.00 | 65 | 1064.9 |
| 20260508182733 | 57 | 112 | 5.2 | 0.0 | 0.00 | 0.00 | 0.00 | 65 | 1065.0 |
| 20260508182620 | 57 | 90 | 6.1 | 0.0 | 0.00 | 0.00 | 0.00 | 65 | 1064.9 |
| 20260508182506 | 57 | 90 | 5.2 | 0.0 | 0.00 | 0.00 | 0.00 | 65 | 1064.8 |
| 20260508182353 | 57 | 45 | 1.7 | 0.0 | 0.00 | 0.00 | 0.00 | 64 | 1064.8 |
| 20260508182232 | 57 | 67 | 7.8 | 0.0 | 0.00 | 0.00 | 0.00 | 64 | 1064.8 |
| 20260508182110 | 57 | 90 | 3.5 | 0.0 | 0.00 | 0.00 | 0.00 | 64 | 1064.8 |
| 20260508181956 | 57 | 67 | 8.7 | 0.0 | 0.00 | 0.00 | 0.00 | 64 | 1064.7 |
| 20260508181842 | 57 | 45 | 3.5 | 0.0 | 0.00 | 0.00 | 0.00 | 64 | 1064.9 |
| 20260508181736 | 57 | 67 | 0.9 | 0.0 | 0.00 | 0.00 | 0.00 | 64 | 1064.8 |
| 20260508181623 | 57 | 67 | 7.0 | 0.0 | 0.00 | 0.00 | 0.00 | 64 | 1064.8 |
| 20260508181503 | 57 | 112 | 7.8 | 0.0 | 0.00 | 0.00 | 0.00 | 63 | 1064.8 |
| 20260508181350 | 57 | 90 | 7.8 | 0.0 | 0.00 | 0.00 | 0.00 | 63 | 1064.8 |
| 20260508181244 | 57 | 67 | 0.0 | 0.0 | 0.00 | 0.00 | 0.00 | 63 | 1064.8 |
| 20260508181133 | 57 | 22 | 9.6 | 0.0 | 0.00 | 0.00 | 0.00 | 63 | 1064.8 |
| 20260508181018 | 58 | 90 | 6.1 | 0.0 | 0.00 | 0.00 | 0.00 | 63 | 1064.8 |
| 20260508180905 | 58 | 67 | 7.8 | 0.0 | 0.00 | 0.00 | 0.00 | 63 | 1064.8 |
| 20260508180751 | 58 | 90 | 7.8 | 0.0 | 0.00 | 0.00 | 0.00 | 63 | 1064.9 |
| 20260508180623 | 58 | 45 | 8.7 | 0.0 | 0.00 | 0.00 | 0.00 | 63 | 1064.8 |
| 20260508180510 | 58 | 67 | 7.0 | 0.0 | 0.00 | 0.00 | 0.00 | 62 | 1064.9 |
| 20260508180404 | 58 | 90 | 3.5 | 0.0 | 0.00 | 0.00 | 0.00 | 62 | 1064.9 |
| 20260508180251 | 58 | 90 | 8.7 | 0.0 | 0.00 | 0.00 | 0.00 | 62 | 1064.9 |
| 20260508180130 | 58 | 112 | 3.5 | 0.0 | 0.00 | 0.00 | 0.00 | 62 | 1064.9 |
| 20260508180017 | 58 | 45 | 8.7 | 0.0 | 0.00 | 0.00 | 0.00 | 62 | 1064.8 |
| 20260508175855 | 58 | 22 | 7.8 | 0.0 | 0.00 | 0.00 | 0.00 | 61 | 1064.7 |
| 20260508175734 | 58 | 90 | 4.3 | 0.0 | 0.00 | 0.00 | 0.00 | 61 | 1064.7 |
| 20260508175605 | 58 | 90 | 4.3 | 0.0 | 0.00 | 0.00 | 0.00 | 61 | 1064.7 |
| 20260508175452 | 58 | 67 | 5.2 | 0.0 | 0.00 | 0.00 | 0.00 | 61 | 1064.7 |
| 20260508175346 | 58 | 90 | 7.0 | 0.0 | 0.00 | 0.00 | 0.00 | 61 | 1064.7 |
| 20260508175234 | 58 | 67 | 0.0 | 0.0 | 0.00 | 0.00 | 0.00 | 60 | 1064.7 |
| 20260508175113 | 58 | 22 | 5.2 | 0.0 | 0.00 | 0.00 | 0.00 | 60 | 1064.7 |
| 20260508175000 | 59 | 90 | 9.6 | 0.0 | 0.00 | 0.00 | 0.00 | 60 | 1064.7 |
| 20260508174847 | 58 | 67 | 9.6 | 0.0 | 0.00 | 0.00 | 0.00 | 60 | 1064.7 |
| 20260508174725 | 59 | 90 | 10.4 | 0.0 | 0.00 | 0.00 | 0.00 | 59 | 1064.6 |
| 20260508174612 | 59 | 67 | 5.2 | 0.0 | 0.00 | 0.00 | 0.00 | 59 | 1064.6 |
| 20260508174507 | 59 | 112 | 0.0 | 0.0 | 0.00 | 0.00 | 0.00 | 59 | 1064.6 |
| 20260508174356 | 59 | 112 | 8.7 | 0.0 | 0.00 | 0.00 | 0.00 | 58 | 1064.6 |
| 20260508174250 | 59 | 67 | 0.0 | 0.0 | 0.00 | 0.00 | 0.00 | 58 | 1064.7 |
| 20260508174136 | 59 | 90 | 7.0 | 0.0 | 0.00 | 0.00 | 0.00 | 58 | 1064.6 |
| 20260508174024 | 59 | 90 | 0.0 | 0.0 | 0.00 | 0.00 | 0.00 | 58 | 1064.7 |
| 20260508173912 | 59 | 90 | 10.4 | 0.0 | 0.00 | 0.00 | 0.00 | 58 | 1064.6 |
| 20260508173750 | 59 | 90 | 5.2 | 0.0 | 0.00 | 0.00 | 0.00 | 58 | 1064.7 |
| 20260508173632 | 59 | 67 | 5.2 | 0.0 | 0.00 | 0.00 | 0.00 | 58 | 1064.6 |
| 20260508173525 | 59 | 45 | 3.5 | 0.0 | 0.00 | 0.00 | 0.00 | 58 | 1064.7 |
| 20260508173348 | 59 | 90 | 0.0 | 0.0 | 0.00 | 0.00 | 0.00 | 57 | 1064.6 |
| 20260508173227 | 59 | 22 | 6.1 | 0.0 | 0.00 | 0.00 | 0.00 | 57 | 1064.7 |
| 20260508173116 | 59 | 45 | 5.2 | 0.0 | 0.00 | 0.00 | 0.00 | 57 | 1064.6 |
| 20260508173009 | 59 | 45 | 9.6 | 0.0 | 0.00 | 0.00 | 0.00 | 56 | 1064.6 |
| 20260508172856 | 59 | 90 | 6.1 | 0.0 | 0.00 | 0.00 | 0.00 | 56 | 1064.6 |
| 20260508172752 | 59 | 45 | 4.3 | 0.0 | 0.00 | 0.00 | 0.00 | 56 | 1064.6 |
| 20260508172646 | 59 | 90 | 3.5 | 0.0 | 0.00 | 0.00 | 0.00 | 56 | 1064.6 |
| 20260508172542 | 59 | 112 | 6.1 | 0.0 | 0.00 | 0.00 | 0.00 | 55 | 1064.6 |
| 20260508172436 | 60 | 90 | 13.0 | 0.0 | 0.00 | 0.00 | 0.00 | 55 | 1064.6 |
| 20260508172333 | 60 | 22 | 6.1 | 0.0 | 0.00 | 0.00 | 0.00 | 55 | 1064.6 |
| 20260508172226 | 60 | 45 | 4.3 | 0.0 | 0.00 | 0.00 | 0.00 | 55 | 1064.5 |
| 20260508172112 | 60 | 45 | 5.2 | 0.0 | 0.00 | 0.00 | 0.00 | 55 | 1064.5 |
| 20260508171959 | 60 | 45 | 7.0 | 0.0 | 0.00 | 0.00 | 0.00 | 55 | 1064.5 |
| 20260508171846 | 60 | 90 | 5.2 | 0.0 | 0.00 | 0.00 | 0.00 | 55 | 1064.5 |
| 20260508171733 | 60 | 22 | 6.1 | 0.0 | 0.00 | 0.00 | 0.00 | 55 | 1064.5 |
| 20260508171622 | 60 | 112 | 9.6 | 0.0 | 0.00 | 0.00 | 0.00 | 54 | 1064.5 |
| 20260508171514 | 60 | 67 | 1.7 | 0.0 | 0.00 | 0.00 | 0.00 | 54 | 1064.5 |
| 20260508171404 | 60 | 90 | 0.0 | 0.0 | 0.00 | 0.00 | 0.00 | 54 | 1064.5 |
| 20260508171257 | 60 | 45 | 0.0 | 0.0 | 0.00 | 0.00 | 0.00 | 54 | 1064.5 |
| 20260508171144 | 60 | 90 | 7.8 | 0.0 | 0.00 | 0.00 | 0.00 | 54 | 1064.4 |
| 20260508171031 | 61 | 45 | 6.1 | 0.0 | 0.00 | 0.00 | 0.00 | 53 | 1064.4 |
| 20260508170927 | 61 | 67 | 5.2 | 0.0 | 0.00 | 0.00 | 0.00 | 53 | 1064.4 |
| 20260508170820 | 61 | 67 | 5.2 | 0.0 | 0.00 | 0.00 | 0.00 | 53 | 1064.4 |
| 20260508170659 | 61 | 67 | 3.5 | 0.0 | 0.00 | 0.00 | 0.00 | 52 | 1064.4 |
| 20260508170539 | 61 | 112 | 5.2 | 0.0 | 0.00 | 0.00 | 0.00 | 52 | 1064.4 |
| 20260508170435 | 61 | 90 | 7.0 | 0.0 | 0.00 | 0.00 | 0.00 | 51 | 1064.4 |
| 20260508170328 | 61 | 90 | 5.2 | 0.0 | 0.00 | 0.00 | 0.00 | 51 | 1064.4 |
| 20260508170214 | 61 | 112 | 6.1 | 0.0 | 0.00 | 0.00 | 0.00 | 51 | 1064.4 |
| 20260508170103 | 61 | 67 | 9.6 | 0.0 | 0.00 | 0.00 | 0.00 | 51 | 1064.4 |
| 20260508165949 | 61 | 67 | 7.0 | 0.0 | 0.00 | 0.00 | 0.00 | 51 | 1064.4 |
| 20260508165819 | 62 | 90 | 5.2 | 0.0 | 0.00 | 0.00 | 0.00 | 50 | 1064.4 |
| 20260508165658 | 62 | 90 | 5.2 | 0.0 | 0.00 | 0.00 | 0.00 | 49 | 1064.3 |
| 20260508165536 | 62 | 112 | 7.8 | 0.0 | 0.00 | 0.00 | 0.00 | 49 | 1064.3 |
| 20260508165416 | 62 | 67 | 5.2 | 0.0 | 0.00 | 0.00 | 0.00 | 49 | 1064.3 |
| 20260508165255 | 61 | 45 | 3.5 | 0.0 | 0.00 | 0.00 | 0.00 | 49 | 1064.3 |
| 20260508165150 | 62 | 45 | 6.1 | 0.0 | 0.00 | 0.00 | 0.00 | 49 | 1064.3 |
| 20260508165044 | 62 | 22 | 6.1 | 0.0 | 0.00 | 0.00 | 0.00 | 50 | 1064.3 |
| 20260508164923 | 62 | 90 | 3.5 | 0.0 | 0.00 | 0.00 | 0.00 | 50 | 1064.3 |
| 20260508164810 | 62 | 67 | 6.1 | 0.0 | 0.00 | 0.00 | 0.00 | 50 | 1064.3 |
| 20260508164649 | 62 | 90 | 7.8 | 0.0 | 0.00 | 0.00 | 0.00 | 51 | 1064.3 |
| 20260508164536 | 62 | 45 | 6.1 | 0.0 | 0.00 | 0.00 | 0.00 | 51 | 1064.3 |
| 20260508164430 | 62 | 90 | 5.2 | 0.0 | 0.00 | 0.00 | 0.00 | 51 | 1064.3 |
| 20260508164317 | 62 | 90 | 7.0 | 0.0 | 0.00 | 0.00 | 0.00 | 51 | 1064.2 |
| 20260508164156 | 62 | 90 | 3.5 | 0.0 | 0.00 | 0.00 | 0.00 | 51 | 1064.3 |
| 20260508164043 | 62 | 112 | 11.3 | 0.0 | 0.00 | 0.00 | 0.00 | 51 | 1064.3 |
| 20260508163924 | 62 | 67 | 13.0 | 0.0 | 0.00 | 0.00 | 0.00 | 51 | 1064.2 |
| 20260508163809 | 62 | 45 | 5.2 | 0.0 | 0.00 | 0.00 | 0.00 | 51 | 1064.3 |
| 20260508163647 | 62 | 67 | 1.7 | 0.0 | 0.00 | 0.00 | 0.00 | 51 | 1064.3 |
| 20260508163527 | 62 | 135 | 7.8 | 0.0 | 0.00 | 0.00 | 0.00 | 50 | 1064.3 |
| 20260508163415 | 62 | 45 | 6.1 | 0.0 | 0.00 | 0.00 | 0.00 | 50 | 1064.3 |
| 20260508163254 | 62 | 67 | 5.2 | 0.0 | 0.00 | 0.00 | 0.00 | 49 | 1064.3 |
| 20260508163140 | 62 | 45 | 7.8 | 0.0 | 0.00 | 0.00 | 0.00 | 49 | 1064.3 |
| 20260508163028 | 62 | 45 | 10.4 | 0.0 | 0.00 | 0.00 | 0.00 | 50 | 1064.3 |
| 20260508162917 | 62 | 67 | 0.0 | 0.0 | 0.00 | 0.00 | 0.00 | 50 | 1064.3 |
| 20260508162809 | 62 | 112 | 8.7 | 0.0 | 0.00 | 0.00 | 0.00 | 49 | 1064.3 |
| 20260508162648 | 62 | 90 | 7.8 | 0.0 | 0.00 | 0.00 | 0.00 | 49 | 1064.4 |
| 20260508162535 | 63 | 90 | 9.6 | 0.0 | 0.00 | 0.00 | 0.00 | 49 | 1064.3 |
| 20260508162430 | 63 | 67 | 6.1 | 0.0 | 0.00 | 0.00 | 0.00 | 49 | 1064.4 |
| 20260508162309 | 63 | 112 | 13.0 | 0.0 | 0.00 | 0.00 | 0.00 | 49 | 1064.3 |
| 20260508162148 | 63 | 67 | 8.7 | 0.0 | 0.00 | 0.00 | 0.00 | 49 | 1064.4 |
| 20260508162034 | 63 | 45 | 7.0 | 0.0 | 0.00 | 0.00 | 0.00 | 48 | 1064.4 |
| 20260508161915 | 63 | 67 | 9.6 | 0.0 | 0.00 | 0.00 | 0.00 | 49 | 1064.3 |
| 20260508161808 | 63 | 90 | 7.8 | 0.0 | 0.00 | 0.00 | 0.00 | 49 | 1064.2 |
| 20260508161654 | 63 | 22 | 2.6 | 0.0 | 0.00 | 0.00 | 0.00 | 48 | 1064.3 |
| 20260508161535 | 63 | 67 | 6.1 | 0.0 | 0.00 | 0.00 | 0.00 | 47 | 1064.3 |
| 20260508161421 | 63 | 90 | 5.2 | 0.0 | 0.00 | 0.00 | 0.00 | 48 | 1064.2 |
| 20260508161308 | 63 | 112 | 8.7 | 0.0 | 0.00 | 0.00 | 0.00 | 49 | 1064.2 |
| 20260508161201 | 63 | 45 | 4.3 | 0.0 | 0.00 | 0.00 | 0.00 | 49 | 1064.2 |
| 20260508161041 | 63 | 45 | 4.3 | 0.0 | 0.00 | 0.00 | 0.00 | 48 | 1064.2 |
| 20260508160926 | 63 | 67 | 3.5 | 0.0 | 0.00 | 0.00 | 0.00 | 47 | 1064.2 |
| 20260508160814 | 63 | 112 | 11.3 | 0.0 | 0.00 | 0.00 | 0.00 | 47 | 1064.3 |
| 20260508160710 | 63 | 67 | 7.0 | 0.0 | 0.00 | 0.00 | 0.00 | 47 | 1064.2 |
| 20260508160603 | 63 | 45 | 5.2 | 0.0 | 0.00 | 0.00 | 0.00 | 46 | 1064.2 |
| 20260508160442 | 63 | 112 | 5.2 | 0.0 | 0.00 | 0.00 | 0.00 | 46 | 1064.2 |
| 20260508160329 | 63 | 45 | 7.8 | 0.0 | 0.00 | 0.00 | 0.00 | 45 | 1064.2 |
| 20260508160216 | 63 | 67 | 7.8 | 0.0 | 0.00 | 0.00 | 0.00 | 45 | 1064.2 |
| 20260508160054 | 63 | 45 | 4.3 | 0.0 | 0.00 | 0.00 | 0.00 | 45 | 1064.2 |
| 20260508155941 | 63 | 112 | 10.4 | 0.0 | 0.00 | 0.00 | 0.00 | 44 | 1064.2 |
| 20260508155828 | 63 | 67 | 4.3 | 0.0 | 0.00 | 0.00 | 0.00 | 44 | 1064.2 |
| 20260508155723 | 63 | 67 | 9.6 | 0.0 | 0.00 | 0.00 | 0.00 | 44 | 1064.2 |
| 20260508155612 | 63 | 45 | 4.3 | 0.0 | 0.00 | 0.00 | 0.00 | 44 | 1064.2 |
| 20260508155505 | 63 | 67 | 8.7 | 0.0 | 0.00 | 0.00 | 0.00 | 44 | 1064.2 |
| 20260508155352 | 63 | 90 | 15.6 | 0.0 | 0.00 | 0.00 | 0.00 | 44 | 1064.2 |
| 20260508155239 | 63 | 90 | 9.6 | 0.0 | 0.00 | 0.00 | 0.00 | 44 | 1064.2 |
| 20260508155126 | 63 | 90 | 6.1 | 0.0 | 0.00 | 0.00 | 0.00 | 44 | 1064.2 |
| 20260508155021 | 63 | 45 | 7.8 | 0.0 | 0.00 | 0.00 | 0.00 | 45 | 1064.2 |
| 20260508154859 | 63 | 67 | 13.9 | 0.0 | 0.00 | 0.00 | 0.00 | 49 | 1064.2 |
| 20260508154738 | 63 | 90 | 1.7 | 0.0 | 0.00 | 0.00 | 0.00 | 49 | 1064.2 |
| 20260508154625 | 63 | 90 | 4.3 | 0.0 | 0.00 | 0.00 | 0.00 | 49 | 1064.2 |
| 20260508154514 | 63 | 67 | 2.6 | 0.0 | 0.00 | 0.00 | 0.00 | 48 | 1064.2 |
| 20260508154359 | 63 | 45 | 12.2 | 0.0 | 0.00 | 0.00 | 0.00 | 48 | 1064.2 |
| 20260508154246 | 63 | 67 | 5.2 | 0.0 | 0.00 | 0.00 | 0.00 | 47 | 1064.3 |
| 20260508154141 | 64 | 22 | 14.8 | 0.0 | 0.00 | 0.00 | 0.00 | 48 | 1064.2 |
| 20260508154027 | 64 | 67 | 11.3 | 0.0 | 0.00 | 0.00 | 0.00 | 48 | 1064.2 |
| 20260508153908 | 64 | 45 | 10.4 | 0.0 | 0.00 | 0.00 | 0.00 | 46 | 1064.2 |
| 20260508153801 | 64 | 112 | 7.0 | 0.0 | 0.00 | 0.00 | 0.00 | 47 | 1064.2 |
| 20260508153648 | 64 | 90 | 10.4 | 0.0 | 0.00 | 0.00 | 0.00 | 47 | 1064.3 |
| 20260508153543 | 64 | 90 | 12.2 | 0.0 | 0.00 | 0.00 | 0.00 | 47 | 1064.2 |
| 20260508153421 | 64 | 90 | 7.0 | 0.0 | 0.00 | 0.00 | 0.00 | 48 | 1064.1 |
| 20260508153301 | 64 | 22 | 12.2 | 0.0 | 0.00 | 0.00 | 0.00 | 47 | 1064.1 |
| 20260508153155 | 64 | 45 | 9.6 | 0.0 | 0.00 | 0.00 | 0.00 | 47 | 1064.2 |
| 20260508153034 | 64 | 22 | 7.0 | 0.0 | 0.00 | 0.00 | 0.00 | 47 | 1064.1 |
| 20260508152913 | 64 | 45 | 7.0 | 0.0 | 0.00 | 0.00 | 0.00 | 46 | 1064.2 |
| 20260508152744 | 64 | 45 | 0.0 | 0.0 | 0.00 | 0.00 | 0.00 | 45 | 1064.2 |
| 20260508152631 | 64 | 67 | 8.7 | 0.0 | 0.00 | 0.00 | 0.00 | 43 | 1064.3 |
| 20260508152518 | 64 | 45 | 7.0 | 0.0 | 0.00 | 0.00 | 0.00 | 44 | 1064.3 |
| 20260508152405 | 64 | 67 | 9.6 | 0.0 | 0.00 | 0.00 | 0.00 | 45 | 1064.3 |
| 20260508152301 | 65 | 90 | 4.3 | 0.0 | 0.00 | 0.00 | 0.00 | 45 | 1064.2 |
| 20260508152147 | 65 | 90 | 2.6 | 0.0 | 0.00 | 0.00 | 0.00 | 45 | 1064.2 |
| 20260508152026 | 65 | 90 | 12.2 | 0.0 | 0.00 | 0.00 | 0.00 | 45 | 1064.3 |
| 20260508151921 | 65 | 67 | 10.4 | 0.0 | 0.00 | 0.00 | 0.00 | 45 | 1064.2 |
| 20260508151759 | 65 | 22 | 6.1 | 0.0 | 0.00 | 0.00 | 0.00 | 45 | 1064.2 |
| 20260508151647 | 65 | 67 | 4.3 | 0.0 | 0.00 | 0.00 | 0.00 | 45 | 1064.2 |
| 20260508151534 | 65 | 45 | 0.0 | 0.0 | 0.00 | 0.00 | 0.00 | 44 | 1064.2 |
| 20260508151414 | 65 | 90 | 5.2 | 0.0 | 0.00 | 0.00 | 0.00 | 45 | 1064.2 |
| 20260508151307 | 65 | 67 | 11.3 | 0.0 | 0.00 | 0.00 | 0.00 | 45 | 1064.2 |
| 20260508151157 | 65 | 90 | 7.0 | 0.0 | 0.00 | 0.00 | 0.00 | 45 | 1064.1 |
| 20260508151049 | 65 | 112 | 7.0 | 0.0 | 0.00 | 0.00 | 0.00 | 44 | 1064.2 |
| 20260508150929 | 65 | 45 | 13.9 | 0.0 | 0.00 | 0.00 | 0.00 | 44 | 1064.2 |
| 20260508150815 | 65 | 90 | 5.2 | 0.0 | 0.00 | 0.00 | 0.00 | 45 | 1064.2 |
| 20260508150702 | 65 | 22 | 9.6 | 0.0 | 0.00 | 0.00 | 0.00 | 45 | 1064.2 |
| 20260508150557 | 65 | 45 | 15.6 | 0.0 | 0.00 | 0.00 | 0.00 | 46 | 1064.1 |
| 20260508150435 | 65 | 45 | 10.4 | 0.0 | 0.00 | 0.00 | 0.00 | 46 | 1064.2 |
| 20260508150314 | 65 | 0 | 7.8 | 0.0 | 0.00 | 0.00 | 0.00 | 46 | 1064.2 |
| 20260508150201 | 65 | 45 | 5.2 | 0.0 | 0.00 | 0.00 | 0.00 | 45 | 1064.2 |
| 20260508150040 | 65 | 45 | 5.2 | 0.0 | 0.00 | 0.00 | 0.00 | 46 | 1064.2 |
| 20260508145927 | 65 | 45 | 0.0 | 0.0 | 0.00 | 0.00 | 0.00 | 45 | 1064.2 |
| 20260508145813 | 65 | 45 | 10.4 | 0.0 | 0.00 | 0.00 | 0.00 | 44 | 1064.3 |
| 20260508145700 | 65 | 90 | 7.0 | 0.0 | 0.00 | 0.00 | 0.00 | 44 | 1064.2 |
| 20260508145539 | 65 | 0 | 6.1 | 0.0 | 0.00 | 0.00 | 0.00 | 44 | 1064.2 |
| 20260508145426 | 65 | 67 | 7.8 | 0.0 | 0.00 | 0.00 | 0.00 | 43 | 1064.2 |
| 20260508145313 | 65 | 67 | 7.0 | 0.0 | 0.00 | 0.00 | 0.00 | 42 | 1064.2 |
| 20260508145202 | 65 | 67 | 8.7 | 0.0 | 0.00 | 0.00 | 0.00 | 42 | 1064.3 |
| 20260508145056 | 65 | 45 | 5.2 | 0.0 | 0.00 | 0.00 | 0.00 | 44 | 1064.2 |
| 20260508144950 | 65 | 67 | 6.1 | 0.0 | 0.00 | 0.00 | 0.00 | 45 | 1064.3 |
| 20260508144836 | 65 | 45 | 4.3 | 0.0 | 0.00 | 0.00 | 0.00 | 46 | 1064.2 |
| 20260508144716 | 64 | 90 | 11.3 | 0.0 | 0.00 | 0.00 | 0.00 | 46 | 1064.2 |
| 20260508144610 | 64 | 22 | 7.0 | 0.0 | 0.00 | 0.00 | 0.00 | 47 | 1064.2 |
| 20260508144457 | 64 | 0 | 6.1 | 0.0 | 0.00 | 0.00 | 0.00 | 46 | 1064.3 |
| 20260508144343 | 64 | 67 | 6.1 | 0.0 | 0.00 | 0.00 | 0.00 | 46 | 1064.3 |
| 20260508144225 | 65 | 90 | 11.3 | 0.0 | 0.00 | 0.00 | 0.00 | 46 | 1064.2 |
| 20260508144118 | 65 | 22 | 11.3 | 0.0 | 0.00 | 0.00 | 0.00 | 45 | 1064.2 |
| 20260508143956 | 65 | 45 | 6.1 | 0.0 | 0.00 | 0.00 | 0.00 | 45 | 1064.2 |
| 20260508143835 | 65 | 45 | 13.0 | 0.0 | 0.00 | 0.00 | 0.00 | 45 | 1064.2 |
| 20260508143715 | 65 | 90 | 10.4 | 0.0 | 0.00 | 0.00 | 0.00 | 45 | 1064.2 |
| 20260508143609 | 65 | 67 | 8.7 | 0.0 | 0.00 | 0.00 | 0.00 | 45 | 1064.3 |
| 20260508143504 | 65 | 22 | 0.0 | 0.0 | 0.00 | 0.00 | 0.00 | 44 | 1064.3 |
| 20260508143351 | 65 | 67 | 12.2 | 0.0 | 0.00 | 0.00 | 0.00 | 44 | 1064.4 |
| 20260508143230 | 66 | 45 | 14.8 | 0.0 | 0.00 | 0.00 | 0.00 | 44 | 1064.5 |
| 20260508143117 | 65 | 67 | 7.8 | 0.0 | 0.00 | 0.00 | 0.00 | 43 | 1064.4 |
| 20260508143013 | 65 | 112 | 7.0 | 0.0 | 0.00 | 0.00 | 0.00 | 42 | 1064.4 |
| 20260508142858 | 65 | 45 | 4.3 | 0.0 | 0.00 | 0.00 | 0.00 | 42 | 1064.4 |
| 20260508142746 | 65 | 90 | 14.8 | 0.0 | 0.00 | 0.00 | 0.00 | 45 | 1064.4 |
| 20260508142640 | 65 | 22 | 7.0 | 0.0 | 0.00 | 0.00 | 0.00 | 46 | 1064.4 |
| 20260508142519 | 65 | 67 | 12.2 | 0.0 | 0.00 | 0.00 | 0.00 | 45 | 1064.3 |
| 20260508142359 | 65 | 22 | 6.1 | 0.0 | 0.00 | 0.00 | 0.00 | 45 | 1064.4 |
| 20260508142253 | 65 | 337 | 3.5 | 0.0 | 0.00 | 0.00 | 0.00 | 44 | 1064.5 |
| 20260508142131 | 65 | 0 | 7.8 | 0.0 | 0.00 | 0.00 | 0.00 | 44 | 1064.6 |
| 20260508142012 | 65 | 45 | 3.5 | 0.0 | 0.00 | 0.00 | 0.00 | 44 | 1064.4 |
| 20260508141907 | 65 | 112 | 13.0 | 0.0 | 0.00 | 0.00 | 0.00 | 44 | 1064.5 |
| 20260508141755 | 65 | 0 | 11.3 | 0.0 | 0.00 | 0.00 | 0.00 | 44 | 1064.6 |
| 20260508141647 | 65 | 22 | 15.6 | 0.0 | 0.00 | 0.00 | 0.00 | 45 | 1064.5 |
| 20260508141534 | 65 | 90 | 7.0 | 0.0 | 0.00 | 0.00 | 0.00 | 44 | 1064.6 |
| 20260508141423 | 65 | 45 | 7.8 | 0.0 | 0.00 | 0.00 | 0.00 | 44 | 1064.6 |
| 20260508141310 | 65 | 112 | 10.4 | 0.0 | 0.00 | 0.00 | 0.00 | 44 | 1064.5 |
| 20260508141155 | 64 | 0 | 4.3 | 0.0 | 0.00 | 0.00 | 0.00 | 46 | 1064.5 |
| 20260508141042 | 64 | 67 | 5.2 | 0.0 | 0.00 | 0.00 | 0.00 | 47 | 1064.6 |
| 20260508140929 | 64 | 45 | 5.2 | 0.0 | 0.00 | 0.00 | 0.00 | 48 | 1064.5 |
| 20260508140825 | 64 | 45 | 7.0 | 0.0 | 0.00 | 0.00 | 0.00 | 48 | 1064.5 |
| 20260508140719 | 63 | 22 | 7.8 | 0.0 | 0.00 | 0.00 | 0.00 | 47 | 1064.6 |
| 20260508140559 | 63 | 0 | 7.8 | 0.0 | 0.00 | 0.00 | 0.00 | 47 | 1064.6 |
| 20260508140453 | 63 | 45 | 8.7 | 0.0 | 0.00 | 0.00 | 0.00 | 46 | 1064.7 |
| 20260508140339 | 63 | 67 | 11.3 | 0.0 | 0.00 | 0.00 | 0.00 | 46 | 1064.7 |
| 20260508140218 | 62 | 0 | 1.7 | 0.0 | 0.00 | 0.00 | 0.00 | 47 | 1064.7 |
| 20260508140105 | 62 | 0 | 10.4 | 0.0 | 0.00 | 0.00 | 0.00 | 47 | 1064.7 |
| 20260508135952 | 62 | 45 | 7.0 | 0.0 | 0.00 | 0.00 | 0.00 | 47 | 1064.8 |
| 20260508135847 | 62 | 45 | 9.6 | 0.0 | 0.00 | 0.00 | 0.00 | 48 | 1064.8 |
| 20260508135729 | 62 | 45 | 10.4 | 0.0 | 0.00 | 0.00 | 0.00 | 48 | 1064.7 |
| 20260508135624 | 62 | 45 | 9.6 | 0.0 | 0.00 | 0.00 | 0.00 | 48 | 1064.7 |
| 20260508135507 | 61 | 67 | 4.3 | 0.0 | 0.00 | 0.00 | 0.00 | 47 | 1064.8 |
| 20260508135354 | 61 | 90 | 3.5 | 0.0 | 0.00 | 0.00 | 0.00 | 46 | 1064.8 |
| 20260508135233 | 61 | 45 | 13.9 | 0.0 | 0.00 | 0.00 | 0.00 | 46 | 1064.8 |
| 20260508135112 | 61 | 22 | 10.4 | 0.0 | 0.00 | 0.00 | 0.00 | 47 | 1064.8 |
| 20260508135008 | 61 | 45 | 20.0 | 0.0 | 0.00 | 0.00 | 0.00 | 50 | 1064.8 |
| 20260508134901 | 61 | 45 | 7.8 | 0.0 | 0.00 | 0.00 | 0.00 | 50 | 1064.7 |
| 20260508134741 | 61 | 112 | 5.2 | 0.0 | 0.00 | 0.00 | 0.00 | 51 | 1064.8 |
| 20260508134635 | 61 | 45 | 9.6 | 0.0 | 0.00 | 0.00 | 0.00 | 50 | 1064.7 |
| 20260508134521 | 61 | 90 | 11.3 | 0.0 | 0.00 | 0.00 | 0.00 | 49 | 1064.8 |
| 20260508134408 | 61 | 45 | 7.0 | 0.0 | 0.00 | 0.00 | 0.00 | 50 | 1064.8 |
| 20260508134255 | 61 | 45 | 7.8 | 0.0 | 0.00 | 0.00 | 0.00 | 49 | 1064.8 |
| 20260508134142 | 61 | 22 | 7.0 | 0.0 | 0.00 | 0.00 | 0.00 | 50 | 1064.7 |
| 20260508134029 | 61 | 45 | 14.8 | 0.0 | 0.00 | 0.00 | 0.00 | 49 | 1064.7 |
| 20260508133916 | 61 | 22 | 4.3 | 0.0 | 0.00 | 0.00 | 0.00 | 49 | 1064.8 |
| 20260508133810 | 61 | 67 | 13.0 | 0.0 | 0.00 | 0.00 | 0.00 | 50 | 1064.8 |
| 20260508133650 | 61 | 45 | 0.0 | 0.0 | 0.00 | 0.00 | 0.00 | 50 | 1064.7 |
| 20260508133536 | 61 | 90 | 12.2 | 0.0 | 0.00 | 0.00 | 0.00 | 50 | 1064.8 |
| 20260508133426 | 61 | 67 | 11.3 | 0.0 | 0.00 | 0.00 | 0.00 | 50 | 1064.8 |
| 20260508133319 | 61 | 67 | 7.0 | 0.0 | 0.00 | 0.00 | 0.00 | 49 | 1064.8 |
| 20260508133214 | 61 | 45 | 6.1 | 0.0 | 0.00 | 0.00 | 0.00 | 49 | 1064.7 |
| 20260508133107 | 61 | 0 | 9.6 | 0.0 | 0.00 | 0.00 | 0.00 | 50 | 1064.7 |
| 20260508133002 | 61 | 45 | 0.0 | 0.0 | 0.00 | 0.00 | 0.00 | 49 | 1064.7 |
| 20260508132857 | 61 | 45 | 10.4 | 0.0 | 0.00 | 0.00 | 0.00 | 49 | 1064.7 |
| 20260508132744 | 61 | 45 | 7.8 | 0.0 | 0.00 | 0.00 | 0.00 | 50 | 1064.7 |
| 20260508132639 | 61 | 67 | 16.5 | 0.0 | 0.00 | 0.00 | 0.00 | 50 | 1064.7 |
| 20260508132525 | 61 | 90 | 6.1 | 0.0 | 0.00 | 0.00 | 0.00 | 51 | 1064.8 |
| 20260508132413 | 61 | 90 | 6.1 | 0.0 | 0.00 | 0.00 | 0.00 | 50 | 1064.8 |
| 20260508132300 | 61 | 0 | 8.7 | 0.0 | 0.00 | 0.00 | 0.00 | 51 | 1064.8 |
| 20260508132154 | 61 | 45 | 8.7 | 0.0 | 0.00 | 0.00 | 0.00 | 52 | 1064.8 |
| 20260508132042 | 61 | 67 | 0.0 | 0.0 | 0.00 | 0.00 | 0.00 | 52 | 1064.8 |
| 20260508131936 | 61 | 90 | 3.5 | 0.0 | 0.00 | 0.00 | 0.00 | 51 | 1064.8 |
| 20260508131815 | 61 | 45 | 12.2 | 0.0 | 0.00 | 0.00 | 0.00 | 51 | 1064.8 |
| 20260508131653 | 61 | 112 | 10.4 | 0.0 | 0.00 | 0.00 | 0.00 | 51 | 1064.8 |
| 20260508131541 | 61 | 112 | 9.6 | 0.0 | 0.00 | 0.00 | 0.00 | 51 | 1064.8 |
| 20260508131428 | 61 | 90 | 13.9 | 0.0 | 0.00 | 0.00 | 0.00 | 52 | 1064.9 |
| 20260508131314 | 61 | 45 | 6.1 | 0.0 | 0.00 | 0.00 | 0.00 | 51 | 1064.8 |
| 20260508131209 | 61 | 67 | 4.3 | 0.0 | 0.00 | 0.00 | 0.00 | 51 | 1064.8 |
| 20260508131040 | 61 | 45 | 13.0 | 0.0 | 0.00 | 0.00 | 0.00 | 52 | 1064.9 |
| 20260508130927 | 61 | 90 | 14.8 | 0.0 | 0.00 | 0.00 | 0.00 | 52 | 1064.9 |
| 20260508130822 | 61 | 45 | 7.0 | 0.0 | 0.00 | 0.00 | 0.00 | 52 | 1064.9 |
| 20260508130700 | 61 | 45 | 6.1 | 0.0 | 0.00 | 0.00 | 0.00 | 51 | 1064.8 |
| 20260508130548 | 61 | 22 | 10.4 | 0.0 | 0.00 | 0.00 | 0.00 | 50 | 1064.8 |
| 20260508130435 | 61 | 45 | 5.2 | 0.0 | 0.00 | 0.00 | 0.00 | 50 | 1064.9 |
| 20260508130330 | 61 | 90 | 14.8 | 0.0 | 0.00 | 0.00 | 0.00 | 51 | 1064.9 |
| 20260508130224 | 61 | 0 | 7.8 | 0.0 | 0.00 | 0.00 | 0.00 | 51 | 1064.9 |
| 20260508130113 | 61 | 45 | 0.0 | 0.0 | 0.00 | 0.00 | 0.00 | 51 | 1064.9 |
| 20260508130008 | 61 | 45 | 7.8 | 0.0 | 0.00 | 0.00 | 0.00 | 50 | 1064.9 |
| 20260508125901 | 61 | 22 | 11.3 | 0.0 | 0.00 | 0.00 | 0.00 | 51 | 1064.9 |
| 20260508125748 | 61 | 45 | 9.6 | 0.0 | 0.00 | 0.00 | 0.00 | 52 | 1064.8 |
| 20260508125627 | 61 | 45 | 3.5 | 0.0 | 0.00 | 0.00 | 0.00 | 52 | 1064.9 |
| 20260508125522 | 61 | 67 | 4.3 | 0.0 | 0.00 | 0.00 | 0.00 | 52 | 1064.9 |
| 20260508125409 | 61 | 67 | 0.0 | 0.0 | 0.00 | 0.00 | 0.00 | 51 | 1064.9 |
| 20260508125306 | 62 | 67 | 9.6 | 0.0 | 0.00 | 0.00 | 0.00 | 51 | 1065.0 |
| 20260508125153 | 62 | 90 | 5.2 | 0.0 | 0.00 | 0.00 | 0.00 | 51 | 1064.9 |
| 20260508125047 | 62 | 22 | 6.1 | 0.0 | 0.00 | 0.00 | 0.00 | 51 | 1064.9 |
| 20260508124940 | 62 | 67 | 7.0 | 0.0 | 0.00 | 0.00 | 0.00 | 50 | 1064.9 |
| 20260508124820 | 62 | 112 | 9.6 | 0.0 | 0.00 | 0.00 | 0.00 | 49 | 1064.9 |
| 20260508124714 | 62 | 67 | 10.4 | 0.0 | 0.00 | 0.00 | 0.00 | 49 | 1064.9 |
| 20260508124601 | 62 | 45 | 10.4 | 0.0 | 0.00 | 0.00 | 0.00 | 48 | 1065.0 |
| 20260508124448 | 62 | 112 | 7.8 | 0.0 | 0.00 | 0.00 | 0.00 | 48 | 1065.1 |
| 20260508124337 | 62 | 90 | 10.4 | 0.0 | 0.00 | 0.00 | 0.00 | 48 | 1065.1 |
| 20260508124231 | 63 | 45 | 5.2 | 0.0 | 0.00 | 0.00 | 0.00 | 47 | 1065.1 |
| 20260508124117 | 63 | 135 | 9.6 | 0.0 | 0.00 | 0.00 | 0.00 | 48 | 1065.1 |
| 20260508124011 | 63 | 112 | 0.0 | 0.0 | 0.00 | 0.00 | 0.00 | 48 | 1065.1 |
| 20260508123851 | 63 | 90 | 12.2 | 0.0 | 0.00 | 0.00 | 0.00 | 47 | 1065.1 |
| 20260508123738 | 64 | 135 | 6.1 | 0.0 | 0.00 | 0.00 | 0.00 | 46 | 1065.2 |
| 20260508123631 | 64 | 135 | 9.6 | 0.0 | 0.00 | 0.00 | 0.00 | 43 | 1065.1 |
| 20260508123520 | 64 | 135 | 6.1 | 0.0 | 0.00 | 0.00 | 0.00 | 43 | 1065.1 |
| 20260508123357 | 64 | 135 | 9.6 | 0.0 | 0.00 | 0.00 | 0.00 | 45 | 1064.9 |
| 20260508123245 | 65 | 22 | 7.8 | 0.0 | 0.00 | 0.00 | 0.00 | 43 | 1064.9 |
| 20260508123132 | 65 | 45 | 0.0 | 0.0 | 0.00 | 0.00 | 0.00 | 42 | 1065.0 |
| 20260508123019 | 65 | 90 | 0.0 | 0.0 | 0.00 | 0.00 | 0.00 | 40 | 1065.1 |
| 20260508122914 | 65 | 112 | 0.0 | 0.0 | 0.00 | 0.00 | 0.00 | 38 | 1065.1 |
| 20260508122801 | 65 | 90 | 8.7 | 0.0 | 0.00 | 0.00 | 0.00 | 37 | 1065.0 |
| 20260508122649 | 65 | 112 | 3.5 | 0.0 | 0.00 | 0.00 | 0.00 | 38 | 1065.0 |
| 20260508122538 | 66 | 112 | 4.3 | 0.0 | 0.00 | 0.00 | 0.00 | 40 | 1065.1 |
| 20260508122422 | 66 | 112 | 0.0 | 0.0 | 0.00 | 0.00 | 0.00 | 42 | 1065.0 |
| 20260508122317 | 66 | 90 | 0.0 | 0.0 | 0.00 | 0.00 | 0.00 | 41 | 1065.1 |
| 20260508122205 | 66 | 112 | 7.0 | 0.0 | 0.00 | 0.00 | 0.00 | 37 | 1065.2 |
| 20260508122051 | 66 | 112 | 10.4 | 0.0 | 0.00 | 0.00 | 0.00 | 35 | 1065.1 |
| 20260508121946 | 66 | 112 | 3.5 | 0.0 | 0.00 | 0.00 | 0.00 | 34 | 1065.1 |
| 20260508121833 | 67 | 135 | 8.7 | 0.0 | 0.00 | 0.00 | 0.00 | 34 | 1064.9 |
| 20260508121728 | 67 | 112 | 10.4 | 0.0 | 0.00 | 0.00 | 0.00 | 33 | 1065.0 |
| 20260508121622 | 67 | 67 | 7.8 | 0.0 | 0.00 | 0.00 | 0.00 | 33 | 1065.0 |
| 20260508121501 | 67 | 45 | 3.5 | 0.0 | 0.00 | 0.00 | 0.00 | 34 | 1065.0 |
| 20260508121341 | 67 | 22 | 5.2 | 0.0 | 0.00 | 0.00 | 0.00 | 33 | 1065.0 |
| 20260508121227 | 67 | 45 | 6.1 | 0.0 | 0.00 | 0.00 | 0.00 | 33 | 1065.0 |
| 20260508121115 | 68 | 112 | 11.3 | 0.0 | 0.00 | 0.00 | 0.00 | 33 | 1065.1 |
| 20260508121002 | 68 | 90 | 4.3 | 0.0 | 0.00 | 0.00 | 0.00 | 33 | 1065.1 |
| 20260508120848 | 68 | 112 | 9.6 | 0.0 | 0.00 | 0.00 | 0.00 | 33 | 1065.1 |
| 20260508120728 | 68 | 45 | 6.1 | 0.0 | 0.00 | 0.00 | 0.00 | 34 | 1065.1 |
| 20260508120625 | 68 | 112 | 0.9 | 0.0 | 0.00 | 0.00 | 0.00 | 33 | 1065.1 |
| 20260508120517 | 68 | 112 | 5.2 | 0.0 | 0.00 | 0.00 | 0.00 | 32 | 1065.1 |
| 20260508120355 | 68 | 135 | 9.6 | 0.0 | 0.00 | 0.00 | 0.00 | 33 | 1065.1 |
| 20260508120236 | 178 | 112 | 6.1 | 0.0 | 0.00 | 0.00 | 0.00 | 11 | 1065.1 |
| 20260508120130 | 178 | 112 | 11.3 | 0.0 | 0.00 | 0.00 | 0.00 | 11 | 1065.1 |
| 20260508120011 | 68 | 112 | 5.2 | 0.0 | 0.00 | 0.00 | 0.00 | 32 | 1065.1 |
| 20260508115905 | 68 | 135 | 7.0 | 0.0 | 0.00 | 0.00 | 0.00 | 33 | 1065.1 |
| 20260508115744 | 68 | 135 | 6.1 | 0.0 | 0.00 | 0.00 | 0.00 | 33 | 1065.1 |
| 20260508115621 | 68 | 135 | 3.5 | 0.0 | 0.00 | 0.00 | 0.00 | 34 | 1065.1 |
| 20260508115501 | 68 | 90 | 0.0 | 0.0 | 0.00 | 0.00 | 0.00 | 34 | 1065.1 |
| 20260508115349 | 68 | 135 | 9.6 | 0.0 | 0.00 | 0.00 | 0.00 | 33 | 1065.1 |
| 20260508115236 | 67 | 135 | 11.3 | 0.0 | 0.00 | 0.00 | 0.00 | 34 | 1065.1 |
| 20260508115125 | 67 | 157 | 7.8 | 0.0 | 0.00 | 0.00 | 0.00 | 35 | 1065.0 |
| 20260508115019 | 67 | 112 | 0.0 | 0.0 | 0.00 | 0.00 | 0.00 | 35 | 1065.0 |
| 20260508114907 | 67 | 45 | 0.0 | 0.0 | 0.00 | 0.00 | 0.00 | 34 | 1065.1 |
| 20260508114800 | 67 | 90 | 0.0 | 0.0 | 0.00 | 0.00 | 0.00 | 35 | 1065.1 |
| 20260508114637 | 67 | 112 | 0.0 | 0.0 | 0.00 | 0.00 | 0.00 | 34 | 1065.1 |
| 20260508114517 | 67 | 157 | 11.3 | 0.0 | 0.00 | 0.00 | 0.00 | 33 | 1065.2 |
| 20260508114403 | 68 | 157 | 12.2 | 0.0 | 0.00 | 0.00 | 0.00 | 33 | 1065.1 |
| 20260508114251 | 68 | 112 | 6.1 | 0.0 | 0.00 | 0.00 | 0.00 | 33 | 1065.1 |
| 20260508114146 | 68 | 135 | 7.8 | 0.0 | 0.00 | 0.00 | 0.00 | 33 | 1065.2 |
| 20260508114026 | 68 | 90 | 7.8 | 0.0 | 0.00 | 0.00 | 0.00 | 33 | 1065.1 |
| 20260508113853 | 68 | 135 | 5.2 | 0.0 | 0.00 | 0.00 | 0.00 | 34 | 1065.0 |
| 20260508113730 | 68 | 22 | 0.0 | 0.0 | 0.00 | 0.00 | 0.00 | 34 | 1065.1 |
| 20260508113616 | 68 | 135 | 9.6 | 0.0 | 0.00 | 0.00 | 0.00 | 34 | 1065.2 |
| 20260508113444 | 68 | 157 | 0.0 | 0.0 | 0.00 | 0.00 | 0.00 | 34 | 1065.2 |
| 20260508113315 | 68 | 135 | 0.0 | 0.0 | 0.00 | 0.00 | 0.00 | 33 | 1065.3 |
| 20260508113156 | 68 | 67 | 7.0 | 0.0 | 0.00 | 0.00 | 0.00 | 34 | 1065.4 |
| 20260508113051 | 68 | 112 | 5.2 | 0.0 | 0.00 | 0.00 | 0.00 | 34 | 1065.3 |
| 20260508112945 | 68 | 112 | 5.2 | 0.0 | 0.00 | 0.00 | 0.00 | 34 | 1065.2 |
| 20260508112817 | 68 | 135 | 6.1 | 0.0 | 0.00 | 0.00 | 0.00 | 33 | 1065.2 |
| 20260508112712 | 68 | 112 | 4.3 | 0.0 | 0.00 | 0.00 | 0.00 | 34 | 1065.3 |
| 20260508112551 | 67 | 157 | 6.1 | 0.0 | 0.00 | 0.00 | 0.00 | 35 | 1065.3 |
| 20260508112430 | 67 | 112 | 1.7 | 0.0 | 0.00 | 0.00 | 0.00 | 34 | 1065.3 |
| 20260508112325 | 67 | 135 | 3.5 | 0.0 | 0.00 | 0.00 | 0.00 | 35 | 1065.3 |
| 20260508112212 | 67 | 67 | 3.5 | 0.0 | 0.00 | 0.00 | 0.00 | 35 | 1065.3 |
| 20260508112100 | 67 | 135 | 5.2 | 0.0 | 0.00 | 0.00 | 0.00 | 35 | 1065.3 |
| 20260508111954 | 67 | 45 | 5.2 | 0.0 | 0.00 | 0.00 | 0.00 | 34 | 1065.4 |
| 20260508111832 | 66 | 90 | 5.2 | 0.0 | 0.00 | 0.00 | 0.00 | 35 | 1065.5 |
| 20260508111703 | 67 | 67 | 5.2 | 0.0 | 0.00 | 0.00 | 0.00 | 33 | 1065.4 |
| 20260508111549 | 67 | 67 | 6.1 | 0.0 | 0.00 | 0.00 | 0.00 | 34 | 1065.4 |
| 20260508111420 | 67 | 90 | 7.0 | 0.0 | 0.00 | 0.00 | 0.00 | 34 | 1065.5 |
| 20260508111301 | 67 | 112 | 8.7 | 0.0 | 0.00 | 0.00 | 0.00 | 34 | 1065.4 |
| 20260508111153 | 66 | 112 | 7.8 | 0.0 | 0.00 | 0.00 | 0.00 | 34 | 1065.4 |
| 20260508111033 | 67 | 135 | 5.2 | 0.0 | 0.00 | 0.00 | 0.00 | 33 | 1065.4 |
| 20260508110918 | 67 | 112 | 10.4 | 0.0 | 0.00 | 0.00 | 0.00 | 34 | 1065.4 |
| 20260508110749 | 67 | 112 | 5.2 | 0.0 | 0.00 | 0.00 | 0.00 | 33 | 1065.3 |
| 20260508110620 | 67 | 90 | 13.0 | 0.0 | 0.00 | 0.00 | 0.00 | 35 | 1065.3 |
| 20260508110451 | 67 | 90 | 6.1 | 0.0 | 0.00 | 0.00 | 0.00 | 35 | 1065.4 |
| 20260508110332 | 67 | 135 | 5.2 | 0.0 | 0.00 | 0.00 | 0.00 | 34 | 1065.4 |
| 20260508110227 | 67 | 90 | 6.1 | 0.0 | 0.00 | 0.00 | 0.00 | 34 | 1065.4 |
| 20260508110120 | 67 | 90 | 12.2 | 0.0 | 0.00 | 0.00 | 0.00 | 34 | 1065.4 |
| 20260508110007 | 67 | 135 | 6.1 | 0.0 | 0.00 | 0.00 | 0.00 | 33 | 1065.4 |
| 20260508105853 | 67 | 90 | 14.8 | 0.0 | 0.00 | 0.00 | 0.00 | 34 | 1065.4 |
| 20260508105734 | 67 | 45 | 5.2 | 0.0 | 0.00 | 0.00 | 0.00 | 35 | 1065.4 |
| 20260508105619 | 67 | 112 | 11.3 | 0.0 | 0.00 | 0.00 | 0.00 | 35 | 1065.4 |
| 20260508105450 | 66 | 135 | 7.8 | 0.0 | 0.00 | 0.00 | 0.00 | 36 | 1065.3 |
| 20260508105336 | 66 | 22 | 0.0 | 0.0 | 0.00 | 0.00 | 0.00 | 35 | 1065.3 |
| 20260508105218 | 66 | 112 | 6.1 | 0.0 | 0.00 | 0.00 | 0.00 | 34 | 1065.3 |
| 20260508105110 | 66 | 135 | 6.1 | 0.0 | 0.00 | 0.00 | 0.00 | 35 | 1065.3 |
| 20260508104949 | 66 | 135 | 11.3 | 0.0 | 0.00 | 0.00 | 0.00 | 35 | 1065.3 |
| 20260508104820 | 66 | 135 | 4.3 | 0.0 | 0.00 | 0.00 | 0.00 | 34 | 1065.4 |
| 20260508104707 | 66 | 135 | 5.2 | 0.0 | 0.00 | 0.00 | 0.00 | 35 | 1065.4 |
| 20260508104539 | 66 | 135 | 5.2 | 0.0 | 0.00 | 0.00 | 0.00 | 35 | 1065.4 |
| 20260508104424 | 66 | 135 | 7.0 | 0.0 | 0.00 | 0.00 | 0.00 | 34 | 1065.3 |
| 20260508104314 | 66 | 90 | 12.2 | 0.0 | 0.00 | 0.00 | 0.00 | 34 | 1065.3 |
| 20260508104207 | 66 | 135 | 7.8 | 0.0 | 0.00 | 0.00 | 0.00 | 34 | 1065.4 |
| 20260508104054 | 67 | 157 | 6.1 | 0.0 | 0.00 | 0.00 | 0.00 | 33 | 1065.3 |
| 20260508103933 | 67 | 135 | 8.7 | 0.0 | 0.00 | 0.00 | 0.00 | 35 | 1065.4 |
| 20260508103827 | 66 | 135 | 5.2 | 0.0 | 0.00 | 0.00 | 0.00 | 34 | 1065.3 |
| 20260508103700 | 67 | 112 | 0.0 | 0.0 | 0.00 | 0.00 | 0.00 | 33 | 1065.4 |
| 20260508103555 | 67 | 112 | 8.7 | 0.0 | 0.00 | 0.00 | 0.00 | 34 | 1065.3 |
| 20260508103448 | 67 | 112 | 0.0 | 0.0 | 0.00 | 0.00 | 0.00 | 35 | 1065.3 |
| 20260508103328 | 67 | 135 | 4.3 | 0.0 | 0.00 | 0.00 | 0.00 | 34 | 1065.3 |
| 20260508103214 | 67 | 135 | 7.8 | 0.0 | 0.00 | 0.00 | 0.00 | 35 | 1065.3 |
| 20260508103111 | 67 | 112 | 5.2 | 0.0 | 0.00 | 0.00 | 0.00 | 34 | 1065.3 |
| 20260508103005 | 67 | 90 | 9.6 | 0.0 | 0.00 | 0.00 | 0.00 | 34 | 1065.3 |
| 20260508102850 | 67 | 112 | 8.7 | 0.0 | 0.00 | 0.00 | 0.00 | 34 | 1065.3 |
| 20260508102737 | 66 | 135 | 7.0 | 0.0 | 0.00 | 0.00 | 0.00 | 34 | 1065.3 |
| 20260508102625 | 66 | 45 | 5.2 | 0.0 | 0.00 | 0.00 | 0.00 | 35 | 1065.4 |
| 20260508102518 | 66 | 135 | 13.0 | 0.0 | 0.00 | 0.00 | 0.00 | 34 | 1065.3 |
| 20260508102406 | 66 | 67 | 5.2 | 0.0 | 0.00 | 0.00 | 0.00 | 34 | 1065.3 |
| 20260508102253 | 66 | 135 | 7.0 | 0.0 | 0.00 | 0.00 | 0.00 | 35 | 1065.3 |
| 20260508102140 | 66 | 135 | 6.1 | 0.0 | 0.00 | 0.00 | 0.00 | 35 | 1065.4 |
| 20260508102035 | 66 | 45 | 5.2 | 0.0 | 0.00 | 0.00 | 0.00 | 35 | 1065.3 |
| 20260508101921 | 66 | 135 | 5.2 | 0.0 | 0.00 | 0.00 | 0.00 | 35 | 1065.4 |
| 20260508101801 | 66 | 112 | 7.8 | 0.0 | 0.00 | 0.00 | 0.00 | 36 | 1065.4 |
| 20260508101649 | 66 | 135 | 8.7 | 0.0 | 0.00 | 0.00 | 0.00 | 35 | 1065.3 |
| 20260508101533 | 66 | 180 | 9.6 | 0.0 | 0.00 | 0.00 | 0.00 | 35 | 1065.4 |
| 20260508101413 | 66 | 135 | 7.8 | 0.0 | 0.00 | 0.00 | 0.00 | 36 | 1065.4 |
| 20260508101259 | 66 | 90 | 4.3 | 0.0 | 0.00 | 0.00 | 0.00 | 36 | 1065.4 |
| 20260508101131 | 66 | 157 | 7.8 | 0.0 | 0.00 | 0.00 | 0.00 | 36 | 1065.4 |
| 20260508101019 | 66 | 112 | 7.8 | 0.0 | 0.00 | 0.00 | 0.00 | 35 | 1065.4 |
| 20260508100915 | 66 | 90 | 7.0 | 0.0 | 0.00 | 0.00 | 0.00 | 35 | 1065.4 |
| 20260508100755 | 66 | 112 | 3.5 | 0.0 | 0.00 | 0.00 | 0.00 | 35 | 1065.5 |
| 20260508100650 | 66 | 90 | 6.1 | 0.0 | 0.00 | 0.00 | 0.00 | 35 | 1065.4 |
| 20260508100538 | 65 | 135 | 9.6 | 0.0 | 0.00 | 0.00 | 0.00 | 35 | 1065.4 |
| 20260508100430 | 66 | 112 | 7.0 | 0.0 | 0.00 | 0.00 | 0.00 | 34 | 1065.4 |
| 20260508100318 | 66 | 157 | 10.4 | 0.0 | 0.00 | 0.00 | 0.00 | 34 | 1065.4 |
| 20260508100205 | 66 | 112 | 5.2 | 0.0 | 0.00 | 0.00 | 0.00 | 34 | 1065.4 |
| 20260508100054 | 66 | 135 | 11.3 | 0.0 | 0.00 | 0.00 | 0.00 | 35 | 1065.5 |
| 20260508095939 | 66 | 135 | 13.0 | 0.0 | 0.00 | 0.00 | 0.00 | 35 | 1065.4 |
| 20260508095826 | 66 | 135 | 10.4 | 0.0 | 0.00 | 0.00 | 0.00 | 36 | 1065.3 |
| 20260508095722 | 66 | 112 | 4.3 | 0.0 | 0.00 | 0.00 | 0.00 | 36 | 1065.4 |
| 20260508095617 | 66 | 135 | 5.2 | 0.0 | 0.00 | 0.00 | 0.00 | 36 | 1065.4 |
| 20260508095512 | 66 | 135 | 13.0 | 0.0 | 0.00 | 0.00 | 0.00 | 36 | 1065.4 |
| 20260508095407 | 66 | 157 | 7.8 | 0.0 | 0.00 | 0.00 | 0.00 | 36 | 1065.4 |
| 20260508095306 | 66 | 135 | 7.0 | 0.0 | 0.00 | 0.00 | 0.00 | 35 | 1065.4 |
| 20260508095150 | 66 | 135 | 4.3 | 0.0 | 0.00 | 0.00 | 0.00 | 35 | 1065.4 |
| 20260508095043 | 66 | 135 | 11.3 | 0.0 | 0.00 | 0.00 | 0.00 | 35 | 1065.5 |
| 20260508094923 | 66 | 135 | 12.2 | 0.0 | 0.00 | 0.00 | 0.00 | 35 | 1065.4 |
| 20260508094811 | 66 | 90 | 6.1 | 0.0 | 0.00 | 0.00 | 0.00 | 34 | 1065.4 |
| 20260508094706 | 66 | 157 | 13.0 | 0.0 | 0.00 | 0.00 | 0.00 | 35 | 1065.4 |
| 20260508094601 | 66 | 112 | 10.4 | 0.0 | 0.00 | 0.00 | 0.00 | 35 | 1065.3 |
| 20260508094449 | 66 | 135 | 0.0 | 0.0 | 0.00 | 0.00 | 0.00 | 35 | 1065.3 |
| 20260508094334 | 66 | 112 | 4.3 | 0.0 | 0.00 | 0.00 | 0.00 | 35 | 1065.4 |
| 20260508094212 | 66 | 112 | 9.6 | 0.0 | 0.00 | 0.00 | 0.00 | 35 | 1065.4 |
| 20260508094043 | 66 | 112 | 7.8 | 0.0 | 0.00 | 0.00 | 0.00 | 34 | 1065.6 |
| 20260508093930 | 67 | 135 | 5.2 | 0.0 | 0.00 | 0.00 | 0.00 | 35 | 1065.5 |
| 20260508093818 | 67 | 112 | 5.2 | 0.0 | 0.00 | 0.00 | 0.00 | 35 | 1065.5 |
| 20260508093712 | 67 | 112 | 10.4 | 0.0 | 0.00 | 0.00 | 0.00 | 34 | 1065.5 |
| 20260508093554 | 67 | 90 | 8.7 | 0.0 | 0.00 | 0.00 | 0.00 | 33 | 1065.6 |
| 20260508093448 | 67 | 112 | 5.2 | 0.0 | 0.00 | 0.00 | 0.00 | 35 | 1065.6 |
| 20260508093341 | 67 | 112 | 5.2 | 0.0 | 0.00 | 0.00 | 0.00 | 36 | 1065.6 |
| 20260508093228 | 67 | 67 | 6.1 | 0.0 | 0.00 | 0.00 | 0.00 | 36 | 1065.6 |
| 20260508093107 | 67 | 45 | 0.0 | 0.0 | 0.00 | 0.00 | 0.00 | 36 | 1065.6 |
| 20260508092946 | 67 | 90 | 5.2 | 0.0 | 0.00 | 0.00 | 0.00 | 36 | 1065.6 |
| 20260508092840 | 67 | 112 | 8.7 | 0.0 | 0.00 | 0.00 | 0.00 | 37 | 1065.6 |
| 20260508092720 | 67 | 112 | 0.0 | 0.0 | 0.00 | 0.00 | 0.00 | 36 | 1065.7 |
| 20260508092607 | 67 | 112 | 13.9 | 0.0 | 0.00 | 0.00 | 0.00 | 36 | 1065.6 |
| 20260508092454 | 67 | 90 | 10.4 | 0.0 | 0.00 | 0.00 | 0.00 | 37 | 1065.6 |
| 20260508092348 | 67 | 135 | 6.1 | 0.0 | 0.00 | 0.00 | 0.00 | 36 | 1065.7 |
| 20260508092235 | 67 | 135 | 1.7 | 0.0 | 0.00 | 0.00 | 0.00 | 36 | 1065.6 |
| 20260508092113 | 67 | 112 | 5.2 | 0.0 | 0.00 | 0.00 | 0.00 | 37 | 1065.6 |
| 20260508092001 | 67 | 90 | 5.2 | 0.0 | 0.00 | 0.00 | 0.00 | 38 | 1065.6 |
| 20260508091855 | 67 | 112 | 9.6 | 0.0 | 0.00 | 0.00 | 0.00 | 38 | 1065.6 |
| 20260508091743 | 67 | 157 | 9.6 | 0.0 | 0.00 | 0.00 | 0.00 | 38 | 1065.6 |
| 20260508091629 | 67 | 135 | 7.8 | 0.0 | 0.00 | 0.00 | 0.00 | 39 | 1065.6 |
| 20260508091509 | 68 | 157 | 7.8 | 0.0 | 0.00 | 0.00 | 0.00 | 38 | 1065.7 |
| 20260508091402 | 68 | 112 | 6.1 | 0.0 | 0.00 | 0.00 | 0.00 | 38 | 1065.6 |
| 20260508091243 | 68 | 135 | 6.1 | 0.0 | 0.00 | 0.00 | 0.00 | 39 | 1065.6 |
| 20260508091140 | 68 | 112 | 8.7 | 0.0 | 0.00 | 0.00 | 0.00 | 39 | 1065.6 |
| 20260508091032 | 68 | 112 | 5.2 | 0.0 | 0.00 | 0.00 | 0.00 | 41 | 1065.6 |
| 20260508090919 | 67 | 157 | 1.7 | 0.0 | 0.00 | 0.00 | 0.00 | 41 | 1065.6 |
| 20260508090805 | 67 | 157 | 0.0 | 0.0 | 0.00 | 0.00 | 0.00 | 41 | 1065.6 |
| 20260508090652 | 67 | 135 | 7.8 | 0.0 | 0.00 | 0.00 | 0.00 | 42 | 1065.6 |
| 20260508090533 | 67 | 90 | 5.2 | 0.0 | 0.00 | 0.00 | 0.00 | 43 | 1065.6 |
| 20260508090429 | 66 | 135 | 8.7 | 0.0 | 0.00 | 0.00 | 0.00 | 43 | 1065.6 |
| 20260508090321 | 66 | 112 | 5.2 | 0.0 | 0.00 | 0.00 | 0.00 | 43 | 1065.6 |
| 20260508090209 | 66 | 135 | 0.0 | 0.0 | 0.00 | 0.00 | 0.00 | 43 | 1065.6 |
| 20260508090055 | 65 | 157 | 0.0 | 0.0 | 0.00 | 0.00 | 0.00 | 42 | 1065.6 |
| 20260508085935 | 65 | 135 | 7.0 | 0.0 | 0.00 | 0.00 | 0.00 | 41 | 1065.7 |
| 20260508085821 | 65 | 90 | 3.5 | 0.0 | 0.00 | 0.00 | 0.00 | 43 | 1065.7 |
| 20260508085703 | 65 | 135 | 8.7 | 0.0 | 0.00 | 0.00 | 0.00 | 45 | 1065.7 |
| 20260508085555 | 65 | 112 | 7.0 | 0.0 | 0.00 | 0.00 | 0.00 | 46 | 1065.6 |
| 20260508085443 | 65 | 112 | 9.6 | 0.0 | 0.00 | 0.00 | 0.00 | 44 | 1065.6 |
| 20260508085321 | 65 | 135 | 6.1 | 0.0 | 0.00 | 0.00 | 0.00 | 44 | 1065.6 |
| 20260508085208 | 65 | 180 | 10.4 | 0.0 | 0.00 | 0.00 | 0.00 | 47 | 1065.6 |
| 20260508085057 | 65 | 157 | 5.2 | 0.0 | 0.00 | 0.00 | 0.00 | 46 | 1065.7 |
| 20260508084950 | 65 | 135 | 5.2 | 0.0 | 0.00 | 0.00 | 0.00 | 47 | 1065.7 |
| 20260508084837 | 65 | 157 | 4.3 | 0.0 | 0.00 | 0.00 | 0.00 | 47 | 1065.7 |
| 20260508084726 | 65 | 135 | 8.7 | 0.0 | 0.00 | 0.00 | 0.00 | 47 | 1065.7 |
| 20260508084621 | 65 | 90 | 7.8 | 0.0 | 0.00 | 0.00 | 0.00 | 47 | 1065.8 |
| 20260508084513 | 65 | 135 | 3.5 | 0.0 | 0.00 | 0.00 | 0.00 | 47 | 1065.7 |
| 20260508084354 | 65 | 112 | 4.3 | 0.0 | 0.00 | 0.00 | 0.00 | 46 | 1065.8 |
| 20260508084247 | 66 | 112 | 5.2 | 0.0 | 0.00 | 0.00 | 0.00 | 45 | 1065.7 |
| 20260508084134 | 66 | 90 | 10.4 | 0.0 | 0.00 | 0.00 | 0.00 | 45 | 1065.7 |
| 20260508084014 | 66 | 90 | 7.0 | 0.0 | 0.00 | 0.00 | 0.00 | 45 | 1065.8 |
| 20260508083859 | 66 | 90 | 7.8 | 0.0 | 0.00 | 0.00 | 0.00 | 45 | 1065.8 |
| 20260508083740 | 66 | 135 | 6.1 | 0.0 | 0.00 | 0.00 | 0.00 | 45 | 1065.8 |
| 20260508083625 | 66 | 135 | 3.5 | 0.0 | 0.00 | 0.00 | 0.00 | 45 | 1065.8 |
| 20260508083511 | 67 | 135 | 7.8 | 0.0 | 0.00 | 0.00 | 0.00 | 45 | 1065.8 |
| 20260508083351 | 67 | 135 | 7.0 | 0.0 | 0.00 | 0.00 | 0.00 | 46 | 1065.7 |
| 20260508083230 | 67 | 112 | 4.3 | 0.0 | 0.00 | 0.00 | 0.00 | 47 | 1065.8 |
| 20260508083124 | 67 | 90 | 0.0 | 0.0 | 0.00 | 0.00 | 0.00 | 47 | 1065.8 |
| 20260508083011 | 66 | 67 | 0.0 | 0.0 | 0.00 | 0.00 | 0.00 | 47 | 1065.8 |
| 20260508082850 | 66 | 22 | 4.3 | 0.0 | 0.00 | 0.00 | 0.00 | 47 | 1065.7 |
| 20260508082729 | 66 | 112 | 5.2 | 0.0 | 0.00 | 0.00 | 0.00 | 47 | 1065.8 |
| 20260508082619 | 67 | 112 | 7.0 | 0.0 | 0.00 | 0.00 | 0.00 | 47 | 1065.7 |
| 20260508082512 | 67 | 112 | 8.7 | 0.0 | 0.00 | 0.00 | 0.00 | 47 | 1065.7 |
| 20260508082400 | 66 | 90 | 4.3 | 0.0 | 0.00 | 0.00 | 0.00 | 47 | 1065.8 |
| 20260508082253 | 66 | 135 | 5.2 | 0.0 | 0.00 | 0.00 | 0.00 | 48 | 1065.8 |
| 20260508082131 | 66 | 112 | 5.2 | 0.0 | 0.00 | 0.00 | 0.00 | 48 | 1065.7 |
| 20260508082012 | 66 | 112 | 7.8 | 0.0 | 0.00 | 0.00 | 0.00 | 47 | 1065.7 |
| 20260508081857 | 66 | 135 | 10.4 | 0.0 | 0.00 | 0.00 | 0.00 | 48 | 1065.7 |
| 20260508081745 | 66 | 135 | 4.3 | 0.0 | 0.00 | 0.00 | 0.00 | 47 | 1065.7 |
| 20260508081631 | 66 | 157 | 7.8 | 0.0 | 0.00 | 0.00 | 0.00 | 48 | 1065.7 |
| 20260508081512 | 65 | 112 | 5.2 | 0.0 | 0.00 | 0.00 | 0.00 | 48 | 1065.7 |
| 20260508081405 | 65 | 135 | 4.3 | 0.0 | 0.00 | 0.00 | 0.00 | 48 | 1065.7 |
| 20260508081252 | 65 | 135 | 4.3 | 0.0 | 0.00 | 0.00 | 0.00 | 47 | 1065.7 |
| 20260508081138 | 65 | 180 | 7.8 | 0.0 | 0.00 | 0.00 | 0.00 | 47 | 1065.7 |
| 20260508081018 | 65 | 180 | 5.2 | 0.0 | 0.00 | 0.00 | 0.00 | 47 | 1065.7 |
| 20260508080913 | 66 | 135 | 7.8 | 0.0 | 0.00 | 0.00 | 0.00 | 46 | 1065.7 |
| 20260508080759 | 66 | 135 | 6.1 | 0.0 | 0.00 | 0.00 | 0.00 | 45 | 1065.7 |
| 20260508080640 | 66 | 157 | 5.2 | 0.0 | 0.00 | 0.00 | 0.00 | 45 | 1065.7 |
| 20260508080532 | 66 | 180 | 4.3 | 0.0 | 0.00 | 0.00 | 0.00 | 45 | 1065.6 |
| 20260508080411 | 66 | 135 | 6.1 | 0.0 | 0.00 | 0.00 | 0.00 | 45 | 1065.7 |
| 20260508080300 | 66 | 135 | 5.2 | 0.0 | 0.00 | 0.00 | 0.00 | 45 | 1065.7 |
| 20260508080154 | 66 | 157 | 9.6 | 0.0 | 0.00 | 0.00 | 0.00 | 45 | 1065.7 |
| 20260508080040 | 66 | 135 | 5.2 | 0.0 | 0.00 | 0.00 | 0.00 | 46 | 1065.7 |
| 20260508075920 | 66 | 135 | 3.5 | 0.0 | 0.00 | 0.00 | 0.00 | 46 | 1065.6 |
| 20260508075814 | 66 | 135 | 6.1 | 0.0 | 0.00 | 0.00 | 0.00 | 46 | 1065.7 |
| 20260508075710 | 66 | 135 | 4.3 | 0.0 | 0.00 | 0.00 | 0.00 | 46 | 1065.8 |
| 20260508075605 | 65 | 135 | 6.1 | 0.0 | 0.00 | 0.00 | 0.00 | 46 | 1065.7 |
| 20260508075454 | 65 | 135 | 8.7 | 0.0 | 0.00 | 0.00 | 0.00 | 46 | 1065.7 |
| 20260508075338 | 65 | 112 | 5.2 | 0.0 | 0.00 | 0.00 | 0.00 | 46 | 1065.7 |
| 20260508075217 | 65 | 157 | 5.2 | 0.0 | 0.00 | 0.00 | 0.00 | 46 | 1065.6 |
| 20260508075112 | 65 | 157 | 7.0 | 0.0 | 0.00 | 0.00 | 0.00 | 44 | 1065.7 |
| 20260508075007 | 65 | 157 | 4.3 | 0.0 | 0.00 | 0.00 | 0.00 | 46 | 1065.7 |
| 20260508074853 | 65 | 135 | 7.8 | 0.0 | 0.00 | 0.00 | 0.00 | 46 | 1065.6 |
| 20260508074742 | 65 | 135 | 7.8 | 0.0 | 0.00 | 0.00 | 0.00 | 47 | 1065.7 |
| 20260508074635 | 65 | 112 | 7.0 | 0.0 | 0.00 | 0.00 | 0.00 | 47 | 1065.7 |
| 20260508074523 | 65 | 112 | 7.8 | 0.0 | 0.00 | 0.00 | 0.00 | 49 | 1065.7 |
| 20260508074400 | 65 | 112 | 8.7 | 0.0 | 0.00 | 0.00 | 0.00 | 49 | 1065.7 |
| 20260508074240 | 65 | 135 | 2.6 | 0.0 | 0.00 | 0.00 | 0.00 | 49 | 1065.7 |
| 20260508074127 | 65 | 112 | 7.0 | 0.0 | 0.00 | 0.00 | 0.00 | 48 | 1065.6 |
| 20260508074008 | 65 | 112 | 8.7 | 0.0 | 0.00 | 0.00 | 0.00 | 49 | 1065.6 |
| 20260508073856 | 65 | 112 | 4.3 | 0.0 | 0.00 | 0.00 | 0.00 | 48 | 1065.7 |
| 20260508073738 | 65 | 135 | 8.7 | 0.0 | 0.00 | 0.00 | 0.00 | 48 | 1065.7 |
| 20260508073620 | 65 | 157 | 4.3 | 0.0 | 0.00 | 0.00 | 0.00 | 48 | 1065.6 |
| 20260508073515 | 65 | 157 | 8.7 | 0.0 | 0.00 | 0.00 | 0.00 | 47 | 1065.7 |
| 20260508073408 | 66 | 157 | 7.8 | 0.0 | 0.00 | 0.00 | 0.00 | 48 | 1065.7 |
| 20260508073255 | 66 | 157 | 3.5 | 0.0 | 0.00 | 0.00 | 0.00 | 47 | 1065.6 |
| 20260508073142 | 66 | 157 | 7.0 | 0.0 | 0.00 | 0.00 | 0.00 | 48 | 1065.6 |
| 20260508073030 | 66 | 135 | 4.3 | 0.0 | 0.00 | 0.00 | 0.00 | 48 | 1065.6 |
| 20260508072915 | 66 | 135 | 5.2 | 0.0 | 0.00 | 0.00 | 0.00 | 49 | 1065.6 |
| 20260508072802 | 66 | 112 | 4.3 | 0.0 | 0.00 | 0.00 | 0.00 | 50 | 1065.5 |
| 20260508072649 | 66 | 67 | 3.5 | 0.0 | 0.00 | 0.00 | 0.00 | 49 | 1065.5 |
| 20260508072543 | 66 | 135 | 6.1 | 0.0 | 0.00 | 0.00 | 0.00 | 48 | 1065.6 |
| 20260508072421 | 66 | 135 | 4.3 | 0.0 | 0.00 | 0.00 | 0.00 | 48 | 1065.5 |
| 20260508072309 | 67 | 135 | 8.7 | 0.0 | 0.00 | 0.00 | 0.00 | 47 | 1065.5 |
| 20260508072206 | 67 | 112 | 5.2 | 0.0 | 0.00 | 0.00 | 0.00 | 49 | 1065.5 |
| 20260508072057 | 67 | 135 | 2.6 | 0.0 | 0.00 | 0.00 | 0.00 | 51 | 1065.5 |
| 20260508071938 | 67 | 135 | 5.2 | 0.0 | 0.00 | 0.00 | 0.00 | 51 | 1065.5 |
| 20260508071833 | 67 | 112 | 5.2 | 0.0 | 0.00 | 0.00 | 0.00 | 49 | 1065.5 |
| 20260508071726 | 67 | 135 | 5.2 | 0.0 | 0.00 | 0.00 | 0.00 | 50 | 1065.6 |
| 20260508071614 | 67 | 135 | 3.5 | 0.0 | 0.00 | 0.00 | 0.00 | 51 | 1065.6 |
| 20260508071511 | 67 | 180 | 2.6 | 0.0 | 0.00 | 0.00 | 0.00 | 50 | 1065.6 |
| 20260508071405 | 67 | 135 | 3.5 | 0.0 | 0.00 | 0.00 | 0.00 | 50 | 1065.5 |
| 20260508071250 | 67 | 90 | 5.2 | 0.0 | 0.00 | 0.00 | 0.00 | 52 | 1065.5 |
| 20260508071138 | 67 | 135 | 0.0 | 0.0 | 0.00 | 0.00 | 0.00 | 51 | 1065.5 |
| 20260508071032 | 67 | 135 | 2.6 | 0.0 | 0.00 | 0.00 | 0.00 | 50 | 1065.5 |
| 20260508070919 | 67 | 135 | 5.2 | 0.0 | 0.00 | 0.00 | 0.00 | 50 | 1065.5 |
| 20260508070807 | 67 | 112 | 3.5 | 0.0 | 0.00 | 0.00 | 0.00 | 51 | 1065.5 |
| 20260508070702 | 67 | 135 | 0.0 | 0.0 | 0.00 | 0.00 | 0.00 | 51 | 1065.4 |
| 20260508070549 | 67 | 112 | 6.1 | 0.0 | 0.00 | 0.00 | 0.00 | 51 | 1065.5 |
| 20260508070443 | 67 | 112 | 2.6 | 0.0 | 0.00 | 0.00 | 0.00 | 52 | 1065.5 |
| 20260508070330 | 66 | 135 | 5.2 | 0.0 | 0.00 | 0.00 | 0.00 | 52 | 1065.4 |
| 20260508070218 | 66 | 157 | 2.6 | 0.0 | 0.00 | 0.00 | 0.00 | 52 | 1065.4 |
| 20260508070105 | 66 | 157 | 3.5 | 0.0 | 0.00 | 0.00 | 0.00 | 51 | 1065.4 |
| 20260508065950 | 66 | 135 | 5.2 | 0.0 | 0.00 | 0.00 | 0.00 | 51 | 1065.3 |
| 20260508065831 | 67 | 112 | 3.5 | 0.0 | 0.00 | 0.00 | 0.00 | 51 | 1065.3 |
| 20260508065716 | 67 | 135 | 6.1 | 0.0 | 0.00 | 0.00 | 0.00 | 52 | 1065.3 |
| 20260508065603 | 67 | 135 | 2.6 | 0.0 | 0.00 | 0.00 | 0.00 | 53 | 1065.4 |
| 20260508065441 | 66 | 135 | 1.7 | 0.0 | 0.00 | 0.00 | 0.00 | 53 | 1065.3 |
| 20260508065321 | 66 | 112 | 3.5 | 0.0 | 0.00 | 0.00 | 0.00 | 54 | 1065.3 |
| 20260508065208 | 66 | 112 | 1.7 | 0.0 | 0.00 | 0.00 | 0.00 | 54 | 1065.3 |
| 20260508065104 | 66 | 135 | 2.6 | 0.0 | 0.00 | 0.00 | 0.00 | 53 | 1065.1 |
| 20260508064958 | 66 | 135 | 4.3 | 0.0 | 0.00 | 0.00 | 0.00 | 54 | 1065.2 |
| 20260508064852 | 66 | 135 | 2.6 | 0.0 | 0.00 | 0.00 | 0.00 | 53 | 1065.3 |
| 20260508064723 | 66 | 135 | 5.2 | 0.0 | 0.00 | 0.00 | 0.00 | 52 | 1065.2 |
| 20260508064555 | 66 | 157 | 4.3 | 0.0 | 0.00 | 0.00 | 0.00 | 53 | 1065.2 |
| 20260508064449 | 66 | 135 | 2.6 | 0.0 | 0.00 | 0.00 | 0.00 | 55 | 1065.1 |
| 20260508064335 | 65 | 135 | 1.7 | 0.0 | 0.00 | 0.00 | 0.00 | 54 | 1065.2 |
| 20260508064214 | 66 | 112 | 3.5 | 0.0 | 0.00 | 0.00 | 0.00 | 54 | 1065.2 |
| 20260508064101 | 65 | 112 | 2.6 | 0.0 | 0.00 | 0.00 | 0.00 | 56 | 1065.1 |
| 20260508063939 | 65 | 135 | 0.0 | 0.0 | 0.00 | 0.00 | 0.00 | 57 | 1065.1 |
| 20260508063826 | 65 | 135 | 2.6 | 0.0 | 0.00 | 0.00 | 0.00 | 56 | 1065.1 |
| 20260508063708 | 64 | 135 | 2.6 | 0.0 | 0.00 | 0.00 | 0.00 | 56 | 1065.1 |
| 20260508063602 | 64 | 135 | 4.3 | 0.0 | 0.00 | 0.00 | 0.00 | 56 | 1065.1 |
| 20260508063458 | 64 | 135 | 3.5 | 0.0 | 0.00 | 0.00 | 0.00 | 57 | 1065.1 |
| 20260508063352 | 64 | 157 | 0.0 | 0.0 | 0.00 | 0.00 | 0.00 | 57 | 1065.1 |
| 20260508063245 | 64 | 157 | 0.0 | 0.0 | 0.00 | 0.00 | 0.00 | 57 | 1065.1 |
| 20260508063132 | 64 | 157 | 0.0 | 0.0 | 0.00 | 0.00 | 0.00 | 58 | 1065.1 |
| 20260508063027 | 64 | 157 | 0.0 | 0.0 | 0.00 | 0.00 | 0.00 | 59 | 1065.1 |
| 20260508062858 | 63 | 157 | 1.7 | 0.0 | 0.00 | 0.00 | 0.00 | 58 | 1065.1 |
| 20260508062745 | 63 | 157 | 2.6 | 0.0 | 0.00 | 0.00 | 0.00 | 59 | 1065.1 |
| 20260508062633 | 62 | 157 | 2.6 | 0.0 | 0.00 | 0.00 | 0.00 | 59 | 1065.1 |
| 20260508062511 | 62 | 157 | 1.7 | 0.0 | 0.00 | 0.00 | 0.00 | 59 | 1065.1 |
| 20260508062358 | 62 | 157 | 3.5 | 0.0 | 0.00 | 0.00 | 0.00 | 60 | 1065.2 |
| 20260508062252 | 62 | 157 | 2.6 | 0.0 | 0.00 | 0.00 | 0.00 | 59 | 1065.1 |
| 20260508062131 | 62 | 157 | 3.5 | 0.0 | 0.00 | 0.00 | 0.00 | 59 | 1065.1 |
| 20260508062010 | 62 | 157 | 3.5 | 0.0 | 0.00 | 0.00 | 0.00 | 59 | 1065.1 |
| 20260508061856 | 62 | 157 | 2.6 | 0.0 | 0.00 | 0.00 | 0.00 | 59 | 1065.1 |
| 20260508061746 | 62 | 157 | 3.5 | 0.0 | 0.00 | 0.00 | 0.00 | 59 | 1065.1 |
| 20260508061639 | 62 | 157 | 4.3 | 0.0 | 0.00 | 0.00 | 0.00 | 59 | 1065.1 |
| 20260508061534 | 62 | 157 | 1.7 | 0.0 | 0.00 | 0.00 | 0.00 | 59 | 1065.1 |
| 20260508061421 | 62 | 157 | 2.6 | 0.0 | 0.00 | 0.00 | 0.00 | 59 | 1065.1 |
| 20260508061259 | 62 | 157 | 1.7 | 0.0 | 0.00 | 0.00 | 0.00 | 59 | 1065.1 |
| 20260508061138 | 62 | 157 | 3.5 | 0.0 | 0.00 | 0.00 | 0.00 | 60 | 1065.1 |
| 20260508061009 | 62 | 157 | 1.7 | 0.0 | 0.00 | 0.00 | 0.00 | 60 | 1065.1 |
| 20260508060856 | 62 | 157 | 3.5 | 0.0 | 0.00 | 0.00 | 0.00 | 61 | 1065.1 |
| 20260508060743 | 62 | 157 | 0.0 | 0.0 | 0.00 | 0.00 | 0.00 | 62 | 1065.1 |
| 20260508060637 | 62 | 157 | 0.0 | 0.0 | 0.00 | 0.00 | 0.00 | 62 | 1065.1 |
| 20260508060517 | 62 | 157 | 1.7 | 0.0 | 0.00 | 0.00 | 0.00 | 60 | 1065.1 |
| 20260508060414 | 62 | 157 | 4.3 | 0.0 | 0.00 | 0.00 | 0.00 | 61 | 1065.1 |
| 20260508060306 | 62 | 157 | 4.3 | 0.0 | 0.00 | 0.00 | 0.00 | 62 | 1065.1 |
| 20260508060145 | 62 | 157 | 0.0 | 0.0 | 0.00 | 0.00 | 0.00 | 63 | 1065.1 |
| 20260508060026 | 62 | 157 | 0.0 | 0.0 | 0.00 | 0.00 | 0.00 | 64 | 1065.1 |
| 20260508055919 | 62 | 157 | 0.0 | 0.0 | 0.00 | 0.00 | 0.00 | 65 | 1065.1 |
| 20260508055805 | 62 | 157 | 0.0 | 0.0 | 0.00 | 0.00 | 0.00 | 67 | 1065.0 |
| 20260508055653 | 61 | 157 | 0.0 | 0.0 | 0.00 | 0.00 | 0.00 | 66 | 1065.1 |
| 20260508055548 | 61 | 157 | 0.0 | 0.0 | 0.00 | 0.00 | 0.00 | 67 | 1065.1 |
| 20260508055442 | 61 | 157 | 0.0 | 0.0 | 0.00 | 0.00 | 0.00 | 68 | 1065.0 |
| 20260508055321 | 61 | 157 | 0.0 | 0.0 | 0.00 | 0.00 | 0.00 | 70 | 1065.1 |
| 20260508055209 | 60 | 157 | 0.0 | 0.0 | 0.00 | 0.00 | 0.00 | 69 | 1065.0 |
| 20260508055103 | 60 | 157 | 0.0 | 0.0 | 0.00 | 0.00 | 0.00 | 71 | 1065.0 |
| 20260508054950 | 60 | 157 | 0.0 | 0.0 | 0.00 | 0.00 | 0.00 | 72 | 1065.1 |
| 20260508054829 | 60 | 157 | 0.0 | 0.0 | 0.00 | 0.00 | 0.00 | 72 | 1065.0 |
| 20260508054715 | 60 | 157 | 0.0 | 0.0 | 0.00 | 0.00 | 0.00 | 73 | 1065.0 |
| 20260508054602 | 59 | 157 | 0.0 | 0.0 | 0.00 | 0.00 | 0.00 | 73 | 1065.0 |
| 20260508054451 | 59 | 157 | 0.0 | 0.0 | 0.00 | 0.00 | 0.00 | 73 | 1065.0 |
| 20260508054344 | 60 | 157 | 0.0 | 0.0 | 0.00 | 0.00 | 0.00 | 73 | 1065.0 |
| 20260508054230 | 60 | 157 | 0.0 | 0.0 | 0.00 | 0.00 | 0.00 | 73 | 1065.0 |
| 20260508054112 | 60 | 157 | 0.0 | 0.0 | 0.00 | 0.00 | 0.00 | 75 | 1065.0 |
| 20260508054004 | 60 | 157 | 0.0 | 0.0 | 0.00 | 0.00 | 0.00 | 75 | 1065.0 |
| 20260508053835 | 61 | 157 | 0.0 | 0.0 | 0.00 | 0.00 | 0.00 | 76 | 1065.0 |
| 20260508053721 | 60 | 157 | 0.0 | 0.0 | 0.00 | 0.00 | 0.00 | 76 | 1065.0 |
| 20260508053601 | 60 | 157 | 0.0 | 0.0 | 0.00 | 0.00 | 0.00 | 76 | 1064.9 |
| 20260508053447 | 60 | 157 | 0.0 | 0.0 | 0.00 | 0.00 | 0.00 | 77 | 1064.9 |
| 20260508053335 | 60 | 157 | 0.0 | 0.0 | 0.00 | 0.00 | 0.00 | 77 | 1064.9 |
| 20260508053229 | 60 | 157 | 0.0 | 0.0 | 0.00 | 0.00 | 0.00 | 78 | 1065.0 |
| 20260508053108 | 60 | 157 | 0.0 | 0.0 | 0.00 | 0.00 | 0.00 | 78 | 1065.0 |
| 20260508052947 | 59 | 157 | 0.0 | 0.0 | 0.00 | 0.00 | 0.00 | 79 | 1064.9 |
| 20260508052841 | 59 | 157 | 0.0 | 0.0 | 0.00 | 0.00 | 0.00 | 79 | 1064.9 |
| 20260508052736 | 59 | 157 | 0.0 | 0.0 | 0.00 | 0.00 | 0.00 | 79 | 1064.8 |
| 20260508052631 | 58 | 157 | 0.0 | 0.0 | 0.00 | 0.00 | 0.00 | 80 | 1064.8 |
| 20260508052526 | 58 | 157 | 0.0 | 0.0 | 0.00 | 0.00 | 0.00 | 81 | 1064.8 |
| 20260508052413 | 57 | 157 | 0.0 | 0.0 | 0.00 | 0.00 | 0.00 | 81 | 1064.8 |
| 20260508052251 | 57 | 157 | 0.0 | 0.0 | 0.00 | 0.00 | 0.00 | 82 | 1064.8 |
| 20260508052123 | 56 | 157 | 0.0 | 0.0 | 0.00 | 0.00 | 0.00 | 83 | 1064.7 |
| 20260508052017 | 55 | 157 | 0.0 | 0.0 | 0.00 | 0.00 | 0.00 | 83 | 1064.7 |
| 20260508051904 | 55 | 157 | 0.0 | 0.0 | 0.00 | 0.00 | 0.00 | 84 | 1064.7 |
| 20260508051750 | 54 | 157 | 0.0 | 0.0 | 0.00 | 0.00 | 0.00 | 84 | 1064.7 |
| 20260508051645 | 54 | 157 | 0.0 | 0.0 | 0.00 | 0.00 | 0.00 | 84 | 1064.7 |
| 20260508051530 | 53 | 157 | 0.0 | 0.0 | 0.00 | 0.00 | 0.00 | 85 | 1064.7 |
| 20260508051401 | 53 | 157 | 0.0 | 0.0 | 0.00 | 0.00 | 0.00 | 85 | 1064.7 |
| 20260508051250 | 52 | 157 | 0.0 | 0.0 | 0.00 | 0.00 | 0.00 | 86 | 1064.7 |
| 20260508051143 | 51 | 157 | 0.0 | 0.0 | 0.00 | 0.00 | 0.00 | 86 | 1064.7 |
| 20260508051023 | 51 | 157 | 0.0 | 0.0 | 0.00 | 0.00 | 0.00 | 87 | 1064.7 |
| 20260508050917 | 50 | 157 | 0.0 | 0.0 | 0.00 | 0.00 | 0.00 | 87 | 1064.7 |
| 20260508050803 | 50 | 157 | 0.0 | 0.0 | 0.00 | 0.00 | 0.00 | 87 | 1064.7 |
| 20260508050658 | 50 | 157 | 0.0 | 0.0 | 0.00 | 0.00 | 0.00 | 87 | 1064.6 |
| 20260508050538 | 50 | 157 | 0.0 | 0.0 | 0.00 | 0.00 | 0.00 | 87 | 1064.6 |
| 20260508050426 | 50 | 157 | 0.0 | 0.0 | 0.00 | 0.00 | 0.00 | 87 | 1064.6 |
| 20260508050319 | 50 | 157 | 0.0 | 0.0 | 0.00 | 0.00 | 0.00 | 87 | 1064.6 |
| 20260508050214 | 50 | 157 | 0.0 | 0.0 | 0.00 | 0.00 | 0.00 | 87 | 1064.6 |
| 20260508050109 | 50 | 157 | 0.0 | 0.0 | 0.00 | 0.00 | 0.00 | 87 | 1064.6 |
| 20260508050003 | 50 | 157 | 0.0 | 0.0 | 0.00 | 0.00 | 0.00 | 87 | 1064.6 |
| 20260508045850 | 50 | 157 | 0.0 | 0.0 | 0.00 | 0.00 | 0.00 | 87 | 1064.5 |
| 20260508045743 | 51 | 157 | 0.0 | 0.0 | 0.00 | 0.00 | 0.00 | 87 | 1064.6 |
| 20260508045621 | 51 | 157 | 0.0 | 0.0 | 0.00 | 0.00 | 0.00 | 87 | 1064.6 |
| 20260508045509 | 51 | 157 | 0.0 | 0.0 | 0.00 | 0.00 | 0.00 | 86 | 1064.6 |
| 20260508045356 | 51 | 157 | 0.0 | 0.0 | 0.00 | 0.00 | 0.00 | 86 | 1064.5 |
| 20260508045250 | 52 | 157 | 0.0 | 0.0 | 0.00 | 0.00 | 0.00 | 86 | 1064.5 |
| 20260508045136 | 52 | 157 | 0.0 | 0.0 | 0.00 | 0.00 | 0.00 | 86 | 1064.5 |
| 20260508045024 | 51 | 157 | 0.0 | 0.0 | 0.00 | 0.00 | 0.00 | 87 | 1064.6 |
| 20260508044911 | 51 | 157 | 0.0 | 0.0 | 0.00 | 0.00 | 0.00 | 87 | 1064.4 |
| 20260508044757 | 51 | 157 | 0.0 | 0.0 | 0.00 | 0.00 | 0.00 | 87 | 1064.6 |
| 20260508044628 | 51 | 157 | 0.0 | 0.0 | 0.00 | 0.00 | 0.00 | 88 | 1064.5 |
| 20260508044507 | 51 | 157 | 0.0 | 0.0 | 0.00 | 0.00 | 0.00 | 88 | 1064.6 |
| 20260508044356 | 50 | 157 | 0.0 | 0.0 | 0.00 | 0.00 | 0.00 | 88 | 1064.5 |
| 20260508044247 | 50 | 157 | 0.0 | 0.0 | 0.00 | 0.00 | 0.00 | 88 | 1064.5 |
| 20260508044133 | 50 | 157 | 0.0 | 0.0 | 0.00 | 0.00 | 0.00 | 88 | 1064.6 |
| 20260508044019 | 50 | 157 | 0.0 | 0.0 | 0.00 | 0.00 | 0.00 | 88 | 1064.5 |
| 20260508043858 | 50 | 157 | 0.0 | 0.0 | 0.00 | 0.00 | 0.00 | 88 | 1064.5 |
| 20260508043737 | 50 | 157 | 0.0 | 0.0 | 0.00 | 0.00 | 0.00 | 88 | 1064.5 |
| 20260508043631 | 50 | 157 | 0.0 | 0.0 | 0.00 | 0.00 | 0.00 | 88 | 1064.5 |
| 20260508043526 | 49 | 157 | 0.0 | 0.0 | 0.00 | 0.00 | 0.00 | 89 | 1064.4 |
| 20260508043412 | 49 | 157 | 0.0 | 0.0 | 0.00 | 0.00 | 0.00 | 89 | 1064.4 |
| 20260508043249 | 48 | 157 | 0.0 | 0.0 | 0.00 | 0.00 | 0.00 | 89 | 1064.5 |
| 20260508043135 | 48 | 157 | 0.0 | 0.0 | 0.00 | 0.00 | 0.00 | 89 | 1064.4 |
| 20260508043029 | 48 | 157 | 0.0 | 0.0 | 0.00 | 0.00 | 0.00 | 89 | 1064.5 |
| 20260508042915 | 47 | 157 | 0.0 | 0.0 | 0.00 | 0.00 | 0.00 | 89 | 1064.5 |
| 20260508042755 | 47 | 157 | 0.0 | 0.0 | 0.00 | 0.00 | 0.00 | 90 | 1064.4 |
| 20260508042640 | 47 | 157 | 0.0 | 0.0 | 0.00 | 0.00 | 0.00 | 90 | 1064.4 |
| 20260508042527 | 46 | 157 | 0.0 | 0.0 | 0.00 | 0.00 | 0.00 | 90 | 1064.4 |
| 20260508042406 | 46 | 157 | 0.0 | 0.0 | 0.00 | 0.00 | 0.00 | 90 | 1064.5 |
| 20260508042244 | 46 | 157 | 0.0 | 0.0 | 0.00 | 0.00 | 0.00 | 90 | 1064.5 |
| 20260508042126 | 46 | 157 | 0.0 | 0.0 | 0.00 | 0.00 | 0.00 | 90 | 1064.4 |
| 20260508042018 | 45 | 157 | 0.0 | 0.0 | 0.00 | 0.00 | 0.00 | 90 | 1064.4 |
| 20260508041905 | 45 | 157 | 0.0 | 0.0 | 0.00 | 0.00 | 0.00 | 90 | 1064.4 |
| 20260508041738 | 45 | 157 | 0.0 | 0.0 | 0.00 | 0.00 | 0.00 | 90 | 1064.4 |
| 20260508041632 | 45 | 157 | 0.0 | 0.0 | 0.00 | 0.00 | 0.00 | 90 | 1064.4 |
| 20260508041528 | 45 | 157 | 0.0 | 0.0 | 0.00 | 0.00 | 0.00 | 90 | 1064.4 |
| 20260508041422 | 45 | 157 | 0.0 | 0.0 | 0.00 | 0.00 | 0.00 | 90 | 1064.4 |
| 20260508041319 | 45 | 157 | 0.0 | 0.0 | 0.00 | 0.00 | 0.00 | 90 | 1064.4 |
| 20260508041211 | 45 | 157 | 0.0 | 0.0 | 0.00 | 0.00 | 0.00 | 90 | 1064.4 |
| 20260508041049 | 45 | 157 | 0.0 | 0.0 | 0.00 | 0.00 | 0.00 | 90 | 1064.3 |
| 20260508040937 | 45 | 157 | 0.0 | 0.0 | 0.00 | 0.00 | 0.00 | 90 | 1064.3 |
| 20260508040823 | 45 | 157 | 0.0 | 0.0 | 0.00 | 0.00 | 0.00 | 90 | 1064.3 |
| 20260508040711 | 45 | 157 | 0.0 | 0.0 | 0.00 | 0.00 | 0.00 | 90 | 1064.4 |
| 20260508040606 | 45 | 157 | 0.0 | 0.0 | 0.00 | 0.00 | 0.00 | 90 | 1064.3 |
| 20260508040501 | 45 | 157 | 0.0 | 0.0 | 0.00 | 0.00 | 0.00 | 90 | 1064.4 |
| 20260508040347 | 45 | 157 | 0.0 | 0.0 | 0.00 | 0.00 | 0.00 | 90 | 1064.3 |
| 20260508040226 | 45 | 157 | 0.0 | 0.0 | 0.00 | 0.00 | 0.00 | 90 | 1064.3 |
| 20260508040113 | 45 | 157 | 0.0 | 0.0 | 0.00 | 0.00 | 0.00 | 90 | 1064.3 |
| 20260508040009 | 45 | 157 | 0.0 | 0.0 | 0.00 | 0.00 | 0.00 | 90 | 1064.4 |
| 20260508035855 | 45 | 157 | 0.0 | 0.0 | 0.00 | 0.00 | 0.00 | 90 | 1064.4 |
| 20260508035734 | 45 | 157 | 0.0 | 0.0 | 0.00 | 0.00 | 0.00 | 90 | 1064.4 |
| 20260508035631 | 45 | 157 | 0.0 | 0.0 | 0.00 | 0.00 | 0.00 | 90 | 1064.3 |
| 20260508035523 | 45 | 157 | 0.0 | 0.0 | 0.00 | 0.00 | 0.00 | 90 | 1064.4 |
| 20260508035402 | 45 | 157 | 0.0 | 0.0 | 0.00 | 0.00 | 0.00 | 90 | 1064.4 |
| 20260508035241 | 45 | 157 | 0.0 | 0.0 | 0.00 | 0.00 | 0.00 | 90 | 1064.3 |
| 20260508035128 | 45 | 157 | 0.0 | 0.0 | 0.00 | 0.00 | 0.00 | 90 | 1064.3 |
| 20260508035024 | 45 | 157 | 0.0 | 0.0 | 0.00 | 0.00 | 0.00 | 90 | 1064.4 |
| 20260508034918 | 46 | 157 | 0.0 | 0.0 | 0.00 | 0.00 | 0.00 | 90 | 1064.3 |
| 20260508034756 | 46 | 157 | 0.0 | 0.0 | 0.00 | 0.00 | 0.00 | 90 | 1064.3 |
| 20260508034636 | 46 | 157 | 0.0 | 0.0 | 0.00 | 0.00 | 0.00 | 90 | 1064.3 |
| 20260508034531 | 46 | 157 | 0.0 | 0.0 | 0.00 | 0.00 | 0.00 | 90 | 1064.3 |
| 20260508034425 | 46 | 157 | 0.0 | 0.0 | 0.00 | 0.00 | 0.00 | 90 | 1064.3 |
| 20260508034304 | 46 | 157 | 0.0 | 0.0 | 0.00 | 0.00 | 0.00 | 90 | 1064.3 |
| 20260508034151 | 46 | 157 | 0.0 | 0.0 | 0.00 | 0.00 | 0.00 | 90 | 1064.3 |
| 20260508034038 | 46 | 157 | 0.0 | 0.0 | 0.00 | 0.00 | 0.00 | 90 | 1064.3 |
| 20260508033932 | 46 | 157 | 0.0 | 0.0 | 0.00 | 0.00 | 0.00 | 90 | 1064.3 |
| 20260508033819 | 46 | 157 | 0.0 | 0.0 | 0.00 | 0.00 | 0.00 | 90 | 1064.3 |
| 20260508033658 | 46 | 157 | 0.0 | 0.0 | 0.00 | 0.00 | 0.00 | 90 | 1064.3 |
| 20260508033537 | 46 | 157 | 0.0 | 0.0 | 0.00 | 0.00 | 0.00 | 90 | 1064.3 |
| 20260508033417 | 46 | 157 | 0.0 | 0.0 | 0.00 | 0.00 | 0.00 | 90 | 1064.3 |
| 20260508033311 | 46 | 157 | 0.0 | 0.0 | 0.00 | 0.00 | 0.00 | 90 | 1064.3 |
| 20260508033158 | 46 | 157 | 0.0 | 0.0 | 0.00 | 0.00 | 0.00 | 90 | 1064.4 |
| 20260508033028 | 46 | 157 | 0.0 | 0.0 | 0.00 | 0.00 | 0.00 | 90 | 1064.3 |
| 20260508032916 | 46 | 157 | 0.0 | 0.0 | 0.00 | 0.00 | 0.00 | 90 | 1064.3 |
| 20260508032754 | 46 | 157 | 0.0 | 0.0 | 0.00 | 0.00 | 0.00 | 90 | 1064.3 |
| 20260508032642 | 46 | 157 | 0.0 | 0.0 | 0.00 | 0.00 | 0.00 | 90 | 1064.3 |
| 20260508032538 | 46 | 157 | 0.0 | 0.0 | 0.00 | 0.00 | 0.00 | 90 | 1064.3 |
| 20260508032431 | 45 | 157 | 0.0 | 0.0 | 0.00 | 0.00 | 0.00 | 90 | 1064.3 |
| 20260508032319 | 45 | 157 | 0.0 | 0.0 | 0.00 | 0.00 | 0.00 | 90 | 1064.3 |
| 20260508032213 | 45 | 157 | 0.0 | 0.0 | 0.00 | 0.00 | 0.00 | 90 | 1064.2 |
| 20260508032100 | 45 | 157 | 0.0 | 0.0 | 0.00 | 0.00 | 0.00 | 90 | 1064.2 |
| 20260508031947 | 45 | 157 | 0.0 | 0.0 | 0.00 | 0.00 | 0.00 | 90 | 1064.2 |
| 20260508031833 | 45 | 157 | 0.0 | 0.0 | 0.00 | 0.00 | 0.00 | 90 | 1064.3 |
| 20260508031721 | 45 | 157 | 0.0 | 0.0 | 0.00 | 0.00 | 0.00 | 90 | 1064.3 |
| 20260508031615 | 45 | 157 | 0.0 | 0.0 | 0.00 | 0.00 | 0.00 | 90 | 1064.3 |
| 20260508031503 | 45 | 157 | 0.0 | 0.0 | 0.00 | 0.00 | 0.00 | 90 | 1064.3 |
| 20260508031357 | 45 | 157 | 0.0 | 0.0 | 0.00 | 0.00 | 0.00 | 90 | 1064.2 |
| 20260508031244 | 45 | 157 | 0.0 | 0.0 | 0.00 | 0.00 | 0.00 | 90 | 1064.2 |
| 20260508031131 | 45 | 157 | 0.0 | 0.0 | 0.00 | 0.00 | 0.00 | 90 | 1064.2 |
| 20260508031018 | 45 | 157 | 0.0 | 0.0 | 0.00 | 0.00 | 0.00 | 90 | 1064.2 |
| 20260508030914 | 45 | 157 | 0.0 | 0.0 | 0.00 | 0.00 | 0.00 | 90 | 1064.2 |
| 20260508030808 | 45 | 157 | 0.0 | 0.0 | 0.00 | 0.00 | 0.00 | 90 | 1064.2 |
| 20260508030657 | 46 | 157 | 0.0 | 0.0 | 0.00 | 0.00 | 0.00 | 90 | 1064.2 |
| 20260508030550 | 46 | 157 | 0.0 | 0.0 | 0.00 | 0.00 | 0.00 | 90 | 1064.2 |
| 20260508030428 | 46 | 157 | 0.0 | 0.0 | 0.00 | 0.00 | 0.00 | 90 | 1064.2 |
| 20260508030307 | 46 | 157 | 0.0 | 0.0 | 0.00 | 0.00 | 0.00 | 90 | 1064.1 |
| 20260508030147 | 46 | 157 | 0.0 | 0.0 | 0.00 | 0.00 | 0.00 | 90 | 1064.2 |
| 20260508030041 | 46 | 157 | 0.0 | 0.0 | 0.00 | 0.00 | 0.00 | 90 | 1064.2 |
| 20260508025928 | 46 | 157 | 0.0 | 0.0 | 0.00 | 0.00 | 0.00 | 90 | 1064.1 |
| 20260508025815 | 46 | 157 | 0.0 | 0.0 | 0.00 | 0.00 | 0.00 | 90 | 1064.2 |
| 20260508025653 | 46 | 157 | 0.0 | 0.0 | 0.00 | 0.00 | 0.00 | 90 | 1064.2 |
| 20260508025541 | 46 | 157 | 0.0 | 0.0 | 0.00 | 0.00 | 0.00 | 90 | 1064.2 |
| 20260508025429 | 46 | 157 | 0.0 | 0.0 | 0.00 | 0.00 | 0.00 | 90 | 1064.3 |
| 20260508025323 | 46 | 157 | 0.0 | 0.0 | 0.00 | 0.00 | 0.00 | 90 | 1064.1 |
| 20260508025210 | 46 | 157 | 0.0 | 0.0 | 0.00 | 0.00 | 0.00 | 90 | 1064.2 |
| 20260508025104 | 46 | 157 | 0.0 | 0.0 | 0.00 | 0.00 | 0.00 | 90 | 1064.2 |
| 20260508024953 | 46 | 157 | 0.0 | 0.0 | 0.00 | 0.00 | 0.00 | 90 | 1064.1 |
| 20260508024846 | 46 | 157 | 0.0 | 0.0 | 0.00 | 0.00 | 0.00 | 90 | 1064.2 |
| 20260508024733 | 46 | 157 | 0.0 | 0.0 | 0.00 | 0.00 | 0.00 | 90 | 1064.2 |
| 20260508024628 | 46 | 157 | 0.0 | 0.0 | 0.00 | 0.00 | 0.00 | 90 | 1064.1 |
| 20260508024459 | 46 | 157 | 0.0 | 0.0 | 0.00 | 0.00 | 0.00 | 90 | 1064.1 |
| 20260508024346 | 46 | 157 | 0.0 | 0.0 | 0.00 | 0.00 | 0.00 | 90 | 1064.2 |
| 20260508024228 | 46 | 157 | 0.0 | 0.0 | 0.00 | 0.00 | 0.00 | 90 | 1064.0 |
| 20260508024113 | 46 | 157 | 0.0 | 0.0 | 0.00 | 0.00 | 0.00 | 90 | 1064.1 |
| 20260508024006 | 46 | 157 | 0.0 | 0.0 | 0.00 | 0.00 | 0.00 | 90 | 1064.1 |
| 20260508023853 | 46 | 157 | 0.0 | 0.0 | 0.00 | 0.00 | 0.00 | 90 | 1064.1 |
| 20260508023749 | 46 | 157 | 0.0 | 0.0 | 0.00 | 0.00 | 0.00 | 90 | 1064.0 |
| 20260508023643 | 46 | 157 | 0.0 | 0.0 | 0.00 | 0.00 | 0.00 | 90 | 1064.1 |
| 20260508023537 | 46 | 157 | 0.0 | 0.0 | 0.00 | 0.00 | 0.00 | 90 | 1064.0 |
| 20260508023416 | 46 | 157 | 0.0 | 0.0 | 0.00 | 0.00 | 0.00 | 90 | 1064.0 |
| 20260508023304 | 46 | 157 | 0.0 | 0.0 | 0.00 | 0.00 | 0.00 | 90 | 1064.1 |
| 20260508023150 | 46 | 157 | 0.0 | 0.0 | 0.00 | 0.00 | 0.00 | 90 | 1064.0 |
| 20260508023029 | 47 | 157 | 0.0 | 0.0 | 0.00 | 0.00 | 0.00 | 90 | 1064.0 |
| 20260508022909 | 47 | 157 | 0.0 | 0.0 | 0.00 | 0.00 | 0.00 | 90 | 1064.1 |
| 20260508022803 | 47 | 157 | 0.0 | 0.0 | 0.00 | 0.00 | 0.00 | 90 | 1064.0 |
| 20260508022652 | 47 | 157 | 0.0 | 0.0 | 0.00 | 0.00 | 0.00 | 90 | 1064.0 |
| 20260508022545 | 47 | 157 | 0.0 | 0.0 | 0.00 | 0.00 | 0.00 | 90 | 1064.0 |
| 20260508022432 | 47 | 157 | 0.0 | 0.0 | 0.00 | 0.00 | 0.00 | 90 | 1063.9 |
| 20260508022319 | 47 | 157 | 0.0 | 0.0 | 0.00 | 0.00 | 0.00 | 90 | 1064.0 |
| 20260508022206 | 47 | 157 | 0.0 | 0.0 | 0.00 | 0.00 | 0.00 | 90 | 1064.0 |
| 20260508022052 | 47 | 157 | 0.0 | 0.0 | 0.00 | 0.00 | 0.00 | 90 | 1063.9 |
| 20260508021939 | 47 | 157 | 0.0 | 0.0 | 0.00 | 0.00 | 0.00 | 90 | 1063.9 |
| 20260508021825 | 47 | 157 | 0.0 | 0.0 | 0.00 | 0.00 | 0.00 | 90 | 1063.9 |
| 20260508021713 | 47 | 157 | 0.0 | 0.0 | 0.00 | 0.00 | 0.00 | 90 | 1063.9 |
| 20260508021608 | 47 | 157 | 0.0 | 0.0 | 0.00 | 0.00 | 0.00 | 90 | 1063.9 |
| 20260508021447 | 47 | 157 | 0.0 | 0.0 | 0.00 | 0.00 | 0.00 | 90 | 1063.9 |
| 20260508021342 | 47 | 157 | 0.0 | 0.0 | 0.00 | 0.00 | 0.00 | 90 | 1064.0 |
| 20260508021220 | 47 | 157 | 0.0 | 0.0 | 0.00 | 0.00 | 0.00 | 90 | 1063.9 |
| 20260508021108 | 47 | 157 | 0.0 | 0.0 | 0.00 | 0.00 | 0.00 | 90 | 1063.9 |
| 20260508021003 | 47 | 157 | 0.0 | 0.0 | 0.00 | 0.00 | 0.00 | 90 | 1063.9 |
| 20260508020841 | 47 | 157 | 0.0 | 0.0 | 0.00 | 0.00 | 0.00 | 90 | 1064.0 |
| 20260508020728 | 47 | 157 | 0.0 | 0.0 | 0.00 | 0.00 | 0.00 | 90 | 1064.0 |
| 20260508020623 | 47 | 157 | 0.0 | 0.0 | 0.00 | 0.00 | 0.00 | 90 | 1064.0 |
| 20260508020510 | 47 | 157 | 0.0 | 0.0 | 0.00 | 0.00 | 0.00 | 90 | 1064.0 |
| 20260508020357 | 47 | 157 | 0.0 | 0.0 | 0.00 | 0.00 | 0.00 | 90 | 1064.0 |
| 20260508020244 | 47 | 157 | 0.0 | 0.0 | 0.00 | 0.00 | 0.00 | 90 | 1064.0 |
| 20260508020131 | 47 | 180 | 0.0 | 0.0 | 0.00 | 0.00 | 0.00 | 90 | 1064.0 |
| 20260508020017 | 47 | 180 | 0.0 | 0.0 | 0.00 | 0.00 | 0.00 | 90 | 1063.9 |
| 20260508015857 | 47 | 180 | 0.0 | 0.0 | 0.00 | 0.00 | 0.00 | 90 | 1063.9 |
| 20260508015751 | 47 | 180 | 0.0 | 0.0 | 0.00 | 0.00 | 0.00 | 90 | 1063.9 |
| 20260508015646 | 47 | 157 | 0.0 | 0.0 | 0.00 | 0.00 | 0.00 | 90 | 1063.9 |
| 20260508015533 | 47 | 157 | 0.0 | 0.0 | 0.00 | 0.00 | 0.00 | 90 | 1063.9 |
| 20260508015428 | 47 | 157 | 0.0 | 0.0 | 0.00 | 0.00 | 0.00 | 90 | 1063.9 |
| 20260508015300 | 47 | 157 | 0.0 | 0.0 | 0.00 | 0.00 | 0.00 | 90 | 1063.9 |
| 20260508015154 | 47 | 157 | 0.0 | 0.0 | 0.00 | 0.00 | 0.00 | 90 | 1063.9 |
| 20260508015041 | 47 | 157 | 0.0 | 0.0 | 0.00 | 0.00 | 0.00 | 90 | 1063.9 |
| 20260508014928 | 47 | 157 | 0.0 | 0.0 | 0.00 | 0.00 | 0.00 | 90 | 1063.9 |
| 20260508014814 | 47 | 157 | 0.0 | 0.0 | 0.00 | 0.00 | 0.00 | 90 | 1063.9 |
| 20260508014653 | 47 | 157 | 0.0 | 0.0 | 0.00 | 0.00 | 0.00 | 90 | 1063.9 |
| 20260508014532 | 47 | 157 | 0.0 | 0.0 | 0.00 | 0.00 | 0.00 | 90 | 1063.9 |
| 20260508014418 | 47 | 157 | 0.0 | 0.0 | 0.00 | 0.00 | 0.00 | 90 | 1063.9 |
| 20260508014306 | 47 | 157 | 0.0 | 0.0 | 0.00 | 0.00 | 0.00 | 90 | 1064.0 |
| 20260508014200 | 47 | 157 | 0.0 | 0.0 | 0.00 | 0.00 | 0.00 | 90 | 1064.0 |
| 20260508014047 | 47 | 157 | 0.0 | 0.0 | 0.00 | 0.00 | 0.00 | 90 | 1063.9 |
| 20260508013936 | 47 | 157 | 0.0 | 0.0 | 0.00 | 0.00 | 0.00 | 90 | 1063.9 |
| 20260508013829 | 47 | 157 | 0.0 | 0.0 | 0.00 | 0.00 | 0.00 | 90 | 1064.0 |
| 20260508013718 | 47 | 157 | 0.0 | 0.0 | 0.00 | 0.00 | 0.00 | 90 | 1063.9 |
| 20260508013611 | 47 | 157 | 0.0 | 0.0 | 0.00 | 0.00 | 0.00 | 90 | 1064.0 |
| 20260508013450 | 47 | 157 | 0.0 | 0.0 | 0.00 | 0.00 | 0.00 | 90 | 1063.9 |
| 20260508013345 | 47 | 157 | 0.0 | 0.0 | 0.00 | 0.00 | 0.00 | 90 | 1063.9 |
| 20260508013225 | 47 | 135 | 0.0 | 0.0 | 0.00 | 0.00 | 0.00 | 90 | 1063.9 |
| 20260508013119 | 47 | 135 | 0.0 | 0.0 | 0.00 | 0.00 | 0.00 | 90 | 1064.0 |
| 20260508013006 | 47 | 112 | 0.0 | 0.0 | 0.00 | 0.00 | 0.00 | 90 | 1063.9 |
| 20260508012901 | 47 | 112 | 0.0 | 0.0 | 0.00 | 0.00 | 0.00 | 90 | 1063.9 |
| 20260508012755 | 47 | 112 | 0.0 | 0.0 | 0.00 | 0.00 | 0.00 | 90 | 1063.9 |
| 20260508012642 | 47 | 112 | 0.0 | 0.0 | 0.00 | 0.00 | 0.00 | 90 | 1063.9 |
| 20260508012521 | 47 | 112 | 0.0 | 0.0 | 0.00 | 0.00 | 0.00 | 90 | 1063.9 |
| 20260508012408 | 47 | 112 | 0.0 | 0.0 | 0.00 | 0.00 | 0.00 | 90 | 1063.9 |
| 20260508012307 | 47 | 112 | 0.0 | 0.0 | 0.00 | 0.00 | 0.00 | 90 | 1063.9 |
| 20260508012142 | 47 | 112 | 0.0 | 0.0 | 0.00 | 0.00 | 0.00 | 90 | 1063.9 |
| 20260508012037 | 47 | 112 | 0.0 | 0.0 | 0.00 | 0.00 | 0.00 | 90 | 1063.9 |
| 20260508011923 | 47 | 112 | 0.0 | 0.0 | 0.00 | 0.00 | 0.00 | 90 | 1063.8 |
| 20260508011811 | 47 | 112 | 0.0 | 0.0 | 0.00 | 0.00 | 0.00 | 90 | 1063.9 |
| 20260508011707 | 47 | 112 | 0.0 | 0.0 | 0.00 | 0.00 | 0.00 | 90 | 1063.9 |
| 20260508011601 | 47 | 90 | 0.0 | 0.0 | 0.00 | 0.00 | 0.00 | 90 | 1063.8 |
| 20260508011456 | 47 | 90 | 0.0 | 0.0 | 0.00 | 0.00 | 0.00 | 90 | 1063.9 |
| 20260508011343 | 47 | 90 | 0.0 | 0.0 | 0.00 | 0.00 | 0.00 | 90 | 1063.8 |
| 20260508011237 | 47 | 90 | 0.0 | 0.0 | 0.00 | 0.00 | 0.00 | 90 | 1063.8 |
| 20260508011125 | 47 | 90 | 0.0 | 0.0 | 0.00 | 0.00 | 0.00 | 90 | 1063.8 |
| 20260508011019 | 47 | 90 | 0.0 | 0.0 | 0.00 | 0.00 | 0.00 | 90 | 1063.8 |
| 20260508010909 | 47 | 90 | 0.0 | 0.0 | 0.00 | 0.00 | 0.00 | 90 | 1063.8 |
| 20260508010803 | 47 | 90 | 0.0 | 0.0 | 0.00 | 0.00 | 0.00 | 90 | 1063.8 |
| 20260508010659 | 47 | 90 | 0.0 | 0.0 | 0.00 | 0.00 | 0.00 | 90 | 1063.8 |
| 20260508010551 | 47 | 90 | 0.0 | 0.0 | 0.00 | 0.00 | 0.00 | 90 | 1063.8 |
| 20260508010422 | 47 | 90 | 0.0 | 0.0 | 0.00 | 0.00 | 0.00 | 90 | 1063.8 |
| 20260508010307 | 47 | 90 | 0.0 | 0.0 | 0.00 | 0.00 | 0.00 | 90 | 1063.8 |
| 20260508005946 | 47 | 90 | 0.0 | 0.0 | 0.00 | 0.00 | 0.00 | 90 | 1063.8 |
| 20260508005840 | 47 | 90 | 0.0 | 0.0 | 0.00 | 0.00 | 0.00 | 90 | 1063.9 |
| 20260508005720 | 47 | 90 | 0.0 | 0.0 | 0.00 | 0.00 | 0.00 | 90 | 1063.8 |
| 20260508005558 | 47 | 90 | 0.0 | 0.0 | 0.00 | 0.00 | 0.00 | 90 | 1063.8 |
| 20260508005454 | 47 | 90 | 0.0 | 0.0 | 0.00 | 0.00 | 0.00 | 90 | 1063.8 |
| 20260508005349 | 47 | 90 | 0.0 | 0.0 | 0.00 | 0.00 | 0.00 | 90 | 1063.8 |
| 20260508005243 | 47 | 90 | 0.0 | 0.0 | 0.00 | 0.00 | 0.00 | 90 | 1063.8 |
| 20260508005130 | 47 | 90 | 0.0 | 0.0 | 0.00 | 0.00 | 0.00 | 90 | 1063.9 |
| 20260508005025 | 47 | 90 | 0.0 | 0.0 | 0.00 | 0.00 | 0.00 | 90 | 1063.8 |
| 20260508004914 | 47 | 90 | 0.0 | 0.0 | 0.00 | 0.00 | 0.00 | 90 | 1063.8 |
| 20260508004806 | 47 | 90 | 0.0 | 0.0 | 0.00 | 0.00 | 0.00 | 90 | 1063.9 |
| 20260508004637 | 47 | 90 | 0.0 | 0.0 | 0.00 | 0.00 | 0.00 | 90 | 1063.9 |
| 20260508004524 | 47 | 90 | 0.0 | 0.0 | 0.00 | 0.00 | 0.00 | 90 | 1063.8 |
| 20260508004411 | 47 | 90 | 0.0 | 0.0 | 0.00 | 0.00 | 0.00 | 90 | 1063.9 |
| 20260508004301 | 47 | 90 | 0.0 | 0.0 | 0.00 | 0.00 | 0.00 | 90 | 1063.9 |
| 20260508004153 | 47 | 90 | 0.0 | 0.0 | 0.00 | 0.00 | 0.00 | 90 | 1063.8 |
| 20260508004048 | 47 | 90 | 0.0 | 0.0 | 0.00 | 0.00 | 0.00 | 90 | 1063.9 |
| 20260508003935 | 47 | 90 | 0.0 | 0.0 | 0.00 | 0.00 | 0.00 | 90 | 1063.8 |
| 20260508003813 | 47 | 90 | 0.0 | 0.0 | 0.00 | 0.00 | 0.00 | 90 | 1063.9 |
| 20260508003701 | 47 | 90 | 0.0 | 0.0 | 0.00 | 0.00 | 0.00 | 90 | 1063.8 |
| 20260508003555 | 47 | 90 | 0.0 | 0.0 | 0.00 | 0.00 | 0.00 | 90 | 1063.9 |
| 20260508003418 | 47 | 90 | 0.0 | 0.0 | 0.00 | 0.00 | 0.00 | 90 | 1063.8 |
| 20260508003251 | 47 | 90 | 0.0 | 0.0 | 0.00 | 0.00 | 0.00 | 90 | 1063.8 |
| 20260508003144 | 47 | 90 | 0.0 | 0.0 | 0.00 | 0.00 | 0.00 | 90 | 1063.9 |
| 20260508003030 | 47 | 90 | 0.0 | 0.0 | 0.00 | 0.00 | 0.00 | 90 | 1063.8 |
| 20260508002909 | 47 | 90 | 0.0 | 0.0 | 0.00 | 0.00 | 0.00 | 90 | 1063.9 |
| 20260508002742 | 47 | 90 | 0.0 | 0.0 | 0.00 | 0.00 | 0.00 | 90 | 1063.8 |
| 20260508002634 | 47 | 90 | 0.0 | 0.0 | 0.00 | 0.00 | 0.00 | 89 | 1063.8 |
| 20260508002520 | 47 | 67 | 0.0 | 0.0 | 0.00 | 0.00 | 0.00 | 89 | 1063.9 |
| 20260508002406 | 47 | 67 | 0.0 | 0.0 | 0.00 | 0.00 | 0.00 | 89 | 1063.9 |
| 20260508002300 | 46 | 67 | 0.0 | 0.0 | 0.00 | 0.00 | 0.00 | 89 | 1063.8 |
| 20260508002145 | 46 | 67 | 0.0 | 0.0 | 0.00 | 0.00 | 0.00 | 89 | 1063.8 |
| 20260508002023 | 46 | 45 | 0.0 | 0.0 | 0.00 | 0.00 | 0.00 | 89 | 1063.8 |
| 20260508001903 | 46 | 45 | 0.0 | 0.0 | 0.00 | 0.00 | 0.00 | 89 | 1063.8 |
| 20260508001757 | 46 | 45 | 0.0 | 0.0 | 0.00 | 0.00 | 0.00 | 89 | 1063.9 |
| 20260508001644 | 46 | 45 | 0.0 | 0.0 | 0.00 | 0.00 | 0.00 | 89 | 1063.8 |
| 20260508001530 | 46 | 45 | 0.0 | 0.0 | 0.00 | 0.00 | 0.00 | 89 | 1063.8 |
| 20260508001409 | 46 | 45 | 0.0 | 0.0 | 0.00 | 0.00 | 0.00 | 89 | 1063.8 |
| 20260508001304 | 46 | 45 | 0.0 | 0.0 | 0.00 | 0.00 | 0.00 | 89 | 1063.8 |
| 20260508001150 | 46 | 45 | 0.0 | 0.0 | 0.00 | 0.00 | 0.00 | 89 | 1063.8 |
| 20260508001030 | 46 | 45 | 0.0 | 0.0 | 0.00 | 0.00 | 0.00 | 89 | 1063.8 |
| 20260508000916 | 46 | 45 | 0.0 | 0.0 | 0.00 | 0.00 | 0.00 | 89 | 1063.7 |
| 20260508000755 | 46 | 45 | 0.0 | 0.0 | 0.00 | 0.00 | 0.00 | 89 | 1063.8 |
| 20260508000633 | 46 | 45 | 0.0 | 0.0 | 0.00 | 0.00 | 0.00 | 89 | 1063.8 |
| 20260508000528 | 46 | 45 | 0.0 | 0.0 | 0.00 | 0.00 | 0.00 | 89 | 1063.8 |
| 20260508000421 | 46 | 45 | 0.0 | 0.0 | 0.00 | 0.00 | 0.00 | 89 | 1063.9 |
| 20260508000308 | 46 | 45 | 0.0 | 0.0 | 0.00 | 0.00 | 0.00 | 88 | 1063.9 |
| 20260508000147 | 46 | 45 | 0.0 | 0.0 | 0.00 | 0.00 | 0.00 | 88 | 1063.8 |
| 20260508000033 | 46 | 45 | 0.0 | 0.0 | 0.00 | 0.00 | 0.00 | 88 | 1063.8 |
| 20260507235927 | 46 | 45 | 0.0 | 0.0 | 0.00 | 0.00 | 0.00 | 88 | 1063.8 |
| 20260507235821 | 46 | 45 | 0.0 | 0.0 | 0.00 | 0.00 | 0.00 | 88 | 1063.8 |
| 20260507235700 | 46 | 45 | 0.0 | 0.0 | 0.00 | 0.00 | 0.00 | 88 | 1063.9 |
| 20260507235544 | 46 | 45 | 0.0 | 0.0 | 0.00 | 0.00 | 0.00 | 88 | 1063.9 |
| 20260507235431 | 46 | 45 | 0.0 | 0.0 | 0.00 | 0.00 | 0.00 | 88 | 1063.8 |
| 20260507235316 | 45 | 45 | 0.0 | 0.0 | 0.00 | 0.00 | 0.00 | 88 | 1063.8 |
| 20260507235203 | 45 | 45 | 0.0 | 0.0 | 0.00 | 0.00 | 0.00 | 88 | 1063.8 |
| 20260507235041 | 45 | 45 | 0.0 | 0.0 | 0.00 | 0.00 | 0.00 | 88 | 1063.8 |
| 20260507234920 | 45 | 45 | 0.0 | 0.0 | 0.00 | 0.00 | 0.00 | 88 | 1063.8 |
| 20260507234758 | 45 | 45 | 0.0 | 0.0 | 0.00 | 0.00 | 0.00 | 88 | 1063.8 |
| 20260507234628 | 45 | 45 | 0.0 | 0.0 | 0.00 | 0.00 | 0.00 | 88 | 1063.8 |
| 20260507234507 | 45 | 45 | 0.0 | 0.0 | 0.00 | 0.00 | 0.00 | 88 | 1063.8 |
| 20260507234337 | 45 | 45 | 0.0 | 0.0 | 0.00 | 0.00 | 0.00 | 88 | 1063.8 |
| 20260507234208 | 45 | 45 | 0.0 | 0.0 | 0.00 | 0.00 | 0.00 | 88 | 1063.9 |
| 20260507234054 | 45 | 45 | 0.0 | 0.0 | 0.00 | 0.00 | 0.00 | 88 | 1063.8 |
| 20260507233950 | 44 | 45 | 0.0 | 0.0 | 0.00 | 0.00 | 0.00 | 88 | 1063.8 |
| 20260507233843 | 45 | 45 | 0.0 | 0.0 | 0.00 | 0.00 | 0.00 | 88 | 1063.8 |
| 20260507233738 | 45 | 45 | 0.0 | 0.0 | 0.00 | 0.00 | 0.00 | 88 | 1063.8 |
| 20260507233630 | 44 | 45 | 0.0 | 0.0 | 0.00 | 0.00 | 0.00 | 88 | 1063.8 |
| 20260507233501 | 45 | 45 | 0.0 | 0.0 | 0.00 | 0.00 | 0.00 | 88 | 1063.7 |
| 20260507233347 | 45 | 45 | 0.0 | 0.0 | 0.00 | 0.00 | 0.00 | 88 | 1063.9 |
| 20260507233218 | 45 | 45 | 0.0 | 0.0 | 0.00 | 0.00 | 0.00 | 88 | 1063.8 |
| 20260507233111 | 45 | 45 | 0.0 | 0.0 | 0.00 | 0.00 | 0.00 | 88 | 1063.9 |
| 20260507232941 | 45 | 45 | 0.0 | 0.0 | 0.00 | 0.00 | 0.00 | 88 | 1063.9 |
| 20260507232820 | 45 | 45 | 0.0 | 0.0 | 0.00 | 0.00 | 0.00 | 88 | 1063.8 |
| 20260507232646 | 45 | 45 | 0.0 | 0.0 | 0.00 | 0.00 | 0.00 | 88 | 1063.8 |
| 20260507232538 | 45 | 45 | 0.0 | 0.0 | 0.00 | 0.00 | 0.00 | 87 | 1063.8 |
| 20260507232433 | 45 | 45 | 0.0 | 0.0 | 0.00 | 0.00 | 0.00 | 87 | 1063.8 |
| 20260507232319 | 45 | 45 | 0.0 | 0.0 | 0.00 | 0.00 | 0.00 | 87 | 1063.8 |
| 20260507232159 | 45 | 45 | 0.0 | 0.0 | 0.00 | 0.00 | 0.00 | 87 | 1063.8 |
| 20260507232045 | 45 | 45 | 0.0 | 0.0 | 0.00 | 0.00 | 0.00 | 87 | 1063.8 |
| 20260507231918 | 45 | 45 | 0.0 | 0.0 | 0.00 | 0.00 | 0.00 | 87 | 1063.8 |